Multibeam Report for MV1105


Ship Name: Melville
Chief Scientist: Kohler, Craig
National Oceanic and Atmospheric Administration
Source Organization: Rolling Deck to Repository
Start Date: 2011-04-29
End Date: 2011-05-28


View ISO Metadata

Visit the full NCEI Bathymetry Viewer


Multibeam Bathymetry

Cruise Details

Project: Deep-ocean Assessment and Reporting of Tsunamis (D
Instrument: Simrad EM122

Data Quality

Number of Files: 1089
Number of Records: 263692
BATHYMETRY DATA Quantity Percentage
Number of Beams 75943296 100%
Number of Good Beams 70007878 92.18%
Number of Zero Beams 2802 0.0%
Number of Flagged Beams 5932616 7.81%
AMPLITUDE DATA Quantity Percentage
Number of Beams 75943296 100%
Number of Good Beams 70007878 92.18%
Number of Zero Beams 2802 0.0%
Number of Flagged Beams 5932616 7.81%
SIDESCAN DATA Quantity Percentage
Number of Pixels 270020608 100%
Number of Good Pixels 220927177 81.82%
Number of Zero Pixels 0 0%
Number of Flagged Pixels 49093431 18.18%

Navigation Totals

Total Time: 529.2451 hours
Total Track Length: 8580.5602 km
Average Speed: 16.213 km/hr (8.7543 knots)

Cruise Bounds

Northern Extent: 32.61015
Southern Extent: -18.335377
Western Extent: -120.59683
Eastern Extent: -73.963066

Limits

Minimum Sonar Depth 1.167 Maximum Sonar Depth 8.7097
Minimum Altitude 29.2523 Maximum Altitude 7897.9482
Minimum Depth 30.9519 Maximum Depth 8042.335
Minimum Amplitude 0 Maximum Amplitude 17.9
Minimum Sidescan 0 Maximum Sidescan 27.2

File Information

Full Resolution Bathymetry as collected (raw): 1086

Files File Size Description
0000_20110430_133147_melville.all.mb58.gz 133.62MB Kongsberg multibeam vendor format
0001_20110430_140145_melville.all.mb58.gz 164.17MB Kongsberg multibeam vendor format
0002_20110430_143142_melville.all.mb58.gz 130.49MB Kongsberg multibeam vendor format
0003_20110430_150147_melville.all.mb58.gz 63.35MB Kongsberg multibeam vendor format
0004_20110430_151632_melville.all.mb58.gz 158.23MB Kongsberg multibeam vendor format
0005_20110430_154949_melville.all.mb58.gz 126.86MB Kongsberg multibeam vendor format
0006_20110430_161954_melville.all.mb58.gz 136.67MB Kongsberg multibeam vendor format
0007_20110430_164956_melville.all.mb58.gz 133.33MB Kongsberg multibeam vendor format
0008_20110430_171955_melville.all.mb58.gz 159.56MB Kongsberg multibeam vendor format
0009_20110430_174952_melville.all.mb58.gz 120.08MB Kongsberg multibeam vendor format
0010_20110430_181951_melville.all.mb58.gz 2.16MB Kongsberg multibeam vendor format
0011_20110430_194809_melville.all.mb58.gz 124.81MB Kongsberg multibeam vendor format
0012_20110430_201809_melville.all.mb58.gz 119.42MB Kongsberg multibeam vendor format
0013_20110430_204815_melville.all.mb58.gz 123.37MB Kongsberg multibeam vendor format
0014_20110430_211811_melville.all.mb58.gz 133.20MB Kongsberg multibeam vendor format
0015_20110430_214819_melville.all.mb58.gz 135.79MB Kongsberg multibeam vendor format
0016_20110430_221810_melville.all.mb58.gz 130.60MB Kongsberg multibeam vendor format
0017_20110430_224814_melville.all.mb58.gz 129.21MB Kongsberg multibeam vendor format
0018_20110430_231807_melville.all.mb58.gz 128.19MB Kongsberg multibeam vendor format
0019_20110430_234809_melville.all.mb58.gz 128.23MB Kongsberg multibeam vendor format
0020_20110501_001805_melville.all.mb58.gz 127.43MB Kongsberg multibeam vendor format
0021_20110501_004813_melville.all.mb58.gz 127.22MB Kongsberg multibeam vendor format
0022_20110501_011818_melville.all.mb58.gz 125.52MB Kongsberg multibeam vendor format
0023_20110501_014813_melville.all.mb58.gz 121.28MB Kongsberg multibeam vendor format
0024_20110501_021806_melville.all.mb58.gz 121.72MB Kongsberg multibeam vendor format
0025_20110501_024814_melville.all.mb58.gz 119.25MB Kongsberg multibeam vendor format
0026_20110501_031805_melville.all.mb58.gz 121.97MB Kongsberg multibeam vendor format
0027_20110501_034814_melville.all.mb58.gz 124.47MB Kongsberg multibeam vendor format
0028_20110501_041815_melville.all.mb58.gz 122.71MB Kongsberg multibeam vendor format
0029_20110501_044810_melville.all.mb58.gz 121.26MB Kongsberg multibeam vendor format
0030_20110501_051813_melville.all.mb58.gz 124.45MB Kongsberg multibeam vendor format
0031_20110501_054810_melville.all.mb58.gz 123.79MB Kongsberg multibeam vendor format
0032_20110501_061808_melville.all.mb58.gz 124.43MB Kongsberg multibeam vendor format
0033_20110501_064805_melville.all.mb58.gz 121.94MB Kongsberg multibeam vendor format
0034_20110501_071811_melville.all.mb58.gz 122.11MB Kongsberg multibeam vendor format
0035_20110501_074809_melville.all.mb58.gz 122.69MB Kongsberg multibeam vendor format
0036_20110501_081813_melville.all.mb58.gz 123.52MB Kongsberg multibeam vendor format
0037_20110501_084810_melville.all.mb58.gz 123.50MB Kongsberg multibeam vendor format
0038_20110501_091809_melville.all.mb58.gz 120.26MB Kongsberg multibeam vendor format
0039_20110501_094816_melville.all.mb58.gz 130.09MB Kongsberg multibeam vendor format
0040_20110501_101805_melville.all.mb58.gz 123.90MB Kongsberg multibeam vendor format
0041_20110501_104811_melville.all.mb58.gz 118.68MB Kongsberg multibeam vendor format
0042_20110501_111816_melville.all.mb58.gz 124.52MB Kongsberg multibeam vendor format
0043_20110501_114810_melville.all.mb58.gz 126.41MB Kongsberg multibeam vendor format
0044_20110501_121820_melville.all.mb58.gz 136.04MB Kongsberg multibeam vendor format
0045_20110501_124807_melville.all.mb58.gz 135.81MB Kongsberg multibeam vendor format
0046_20110501_131808_melville.all.mb58.gz 135.28MB Kongsberg multibeam vendor format
0047_20110501_134804_melville.all.mb58.gz 117.13MB Kongsberg multibeam vendor format
0048_20110501_141805_melville.all.mb58.gz 132.17MB Kongsberg multibeam vendor format
0049_20110501_144808_melville.all.mb58.gz 119.06MB Kongsberg multibeam vendor format
0050_20110501_151808_melville.all.mb58.gz 116.74MB Kongsberg multibeam vendor format
0051_20110501_154811_melville.all.mb58.gz 127.34MB Kongsberg multibeam vendor format
0052_20110501_161806_melville.all.mb58.gz 126.67MB Kongsberg multibeam vendor format
0053_20110501_164813_melville.all.mb58.gz 120.88MB Kongsberg multibeam vendor format
0054_20110501_171813_melville.all.mb58.gz 128.41MB Kongsberg multibeam vendor format
0055_20110501_174804_melville.all.mb58.gz 123.89MB Kongsberg multibeam vendor format
0056_20110501_181814_melville.all.mb58.gz 119.11MB Kongsberg multibeam vendor format
0057_20110501_184808_melville.all.mb58.gz 121.20MB Kongsberg multibeam vendor format
0058_20110501_191816_melville.all.mb58.gz 128.56MB Kongsberg multibeam vendor format
0059_20110501_194811_melville.all.mb58.gz 134.72MB Kongsberg multibeam vendor format
0060_20110501_201805_melville.all.mb58.gz 138.36MB Kongsberg multibeam vendor format
0061_20110501_204810_melville.all.mb58.gz 138.24MB Kongsberg multibeam vendor format
0062_20110501_211813_melville.all.mb58.gz 134.14MB Kongsberg multibeam vendor format
0063_20110501_214814_melville.all.mb58.gz 132.89MB Kongsberg multibeam vendor format
0064_20110501_221805_melville.all.mb58.gz 138.17MB Kongsberg multibeam vendor format
0065_20110501_224807_melville.all.mb58.gz 140.54MB Kongsberg multibeam vendor format
0066_20110501_231806_melville.all.mb58.gz 139.51MB Kongsberg multibeam vendor format
0067_20110501_234812_melville.all.mb58.gz 141.48MB Kongsberg multibeam vendor format
0068_20110502_001815_melville.all.mb58.gz 139.94MB Kongsberg multibeam vendor format
0069_20110502_004805_melville.all.mb58.gz 145.54MB Kongsberg multibeam vendor format
0070_20110502_011809_melville.all.mb58.gz 143.25MB Kongsberg multibeam vendor format
0071_20110502_014805_melville.all.mb58.gz 147.68MB Kongsberg multibeam vendor format
0072_20110502_021811_melville.all.mb58.gz 145.51MB Kongsberg multibeam vendor format
0073_20110502_024811_melville.all.mb58.gz 144.53MB Kongsberg multibeam vendor format
0074_20110502_031811_melville.all.mb58.gz 140.86MB Kongsberg multibeam vendor format
0075_20110502_034809_melville.all.mb58.gz 146.83MB Kongsberg multibeam vendor format
0076_20110502_041813_melville.all.mb58.gz 139.26MB Kongsberg multibeam vendor format
0077_20110502_044807_melville.all.mb58.gz 139.58MB Kongsberg multibeam vendor format
0078_20110502_051809_melville.all.mb58.gz 147.95MB Kongsberg multibeam vendor format
0079_20110502_054805_melville.all.mb58.gz 148.27MB Kongsberg multibeam vendor format
0080_20110502_061814_melville.all.mb58.gz 146.41MB Kongsberg multibeam vendor format
0081_20110502_064804_melville.all.mb58.gz 151.10MB Kongsberg multibeam vendor format
0082_20110502_071813_melville.all.mb58.gz 146.40MB Kongsberg multibeam vendor format
0083_20110502_074814_melville.all.mb58.gz 144.87MB Kongsberg multibeam vendor format
0084_20110502_081811_melville.all.mb58.gz 136.85MB Kongsberg multibeam vendor format
0085_20110502_084811_melville.all.mb58.gz 142.44MB Kongsberg multibeam vendor format
0086_20110502_091811_melville.all.mb58.gz 136.73MB Kongsberg multibeam vendor format
0087_20110502_094805_melville.all.mb58.gz 150.96MB Kongsberg multibeam vendor format
0088_20110502_101809_melville.all.mb58.gz 147.43MB Kongsberg multibeam vendor format
0089_20110502_104805_melville.all.mb58.gz 144.58MB Kongsberg multibeam vendor format
0090_20110502_111810_melville.all.mb58.gz 139.37MB Kongsberg multibeam vendor format
0091_20110502_114811_melville.all.mb58.gz 137.47MB Kongsberg multibeam vendor format
0092_20110502_121818_melville.all.mb58.gz 140.37MB Kongsberg multibeam vendor format
0093_20110502_124807_melville.all.mb58.gz 146.92MB Kongsberg multibeam vendor format
0094_20110502_131808_melville.all.mb58.gz 147.58MB Kongsberg multibeam vendor format
0095_20110502_134807_melville.all.mb58.gz 143.16MB Kongsberg multibeam vendor format
0096_20110502_141805_melville.all.mb58.gz 137.48MB Kongsberg multibeam vendor format
0097_20110502_144809_melville.all.mb58.gz 135.91MB Kongsberg multibeam vendor format
0098_20110502_151816_melville.all.mb58.gz 145.26MB Kongsberg multibeam vendor format
0099_20110502_154814_melville.all.mb58.gz 152.32MB Kongsberg multibeam vendor format
0100_20110502_161809_melville.all.mb58.gz 151.84MB Kongsberg multibeam vendor format
0101_20110502_164804_melville.all.mb58.gz 150.13MB Kongsberg multibeam vendor format
0102_20110502_171813_melville.all.mb58.gz 143.52MB Kongsberg multibeam vendor format
0103_20110502_174805_melville.all.mb58.gz 149.49MB Kongsberg multibeam vendor format
0104_20110502_181814_melville.all.mb58.gz 153.10MB Kongsberg multibeam vendor format
0105_20110502_184807_melville.all.mb58.gz 152.87MB Kongsberg multibeam vendor format
0106_20110502_191810_melville.all.mb58.gz 153.98MB Kongsberg multibeam vendor format
0107_20110502_194814_melville.all.mb58.gz 139.77MB Kongsberg multibeam vendor format
0108_20110502_201813_melville.all.mb58.gz 141.88MB Kongsberg multibeam vendor format
0109_20110502_204810_melville.all.mb58.gz 150.18MB Kongsberg multibeam vendor format
0110_20110502_211804_melville.all.mb58.gz 151.63MB Kongsberg multibeam vendor format
0111_20110502_214806_melville.all.mb58.gz 140.63MB Kongsberg multibeam vendor format
0112_20110502_221805_melville.all.mb58.gz 135.93MB Kongsberg multibeam vendor format
0113_20110502_224815_melville.all.mb58.gz 152.74MB Kongsberg multibeam vendor format
0114_20110502_231809_melville.all.mb58.gz 154.30MB Kongsberg multibeam vendor format
0115_20110502_234814_melville.all.mb58.gz 135.95MB Kongsberg multibeam vendor format
0116_20110503_001815_melville.all.mb58.gz 138.55MB Kongsberg multibeam vendor format
0117_20110503_004815_melville.all.mb58.gz 193.05MB Kongsberg multibeam vendor format
0118_20110503_011814_melville.all.mb58.gz 185.11MB Kongsberg multibeam vendor format
0119_20110503_014816_melville.all.mb58.gz 179.29MB Kongsberg multibeam vendor format
0120_20110503_021805_melville.all.mb58.gz 182.89MB Kongsberg multibeam vendor format
0121_20110503_024814_melville.all.mb58.gz 178.30MB Kongsberg multibeam vendor format
0122_20110503_031806_melville.all.mb58.gz 182.28MB Kongsberg multibeam vendor format
0123_20110503_034807_melville.all.mb58.gz 188.29MB Kongsberg multibeam vendor format
0124_20110503_041811_melville.all.mb58.gz 179.00MB Kongsberg multibeam vendor format
0125_20110503_044816_melville.all.mb58.gz 181.92MB Kongsberg multibeam vendor format
0126_20110503_051817_melville.all.mb58.gz 182.12MB Kongsberg multibeam vendor format
0127_20110503_054811_melville.all.mb58.gz 183.62MB Kongsberg multibeam vendor format
0128_20110503_061814_melville.all.mb58.gz 145.70MB Kongsberg multibeam vendor format
0129_20110503_064804_melville.all.mb58.gz 78.71MB Kongsberg multibeam vendor format
0130_20110503_071817_melville.all.mb58.gz 76.99MB Kongsberg multibeam vendor format
0131_20110503_074818_melville.all.mb58.gz 77.63MB Kongsberg multibeam vendor format
0132_20110503_081810_melville.all.mb58.gz 78.55MB Kongsberg multibeam vendor format
0133_20110503_084812_melville.all.mb58.gz 79.58MB Kongsberg multibeam vendor format
0134_20110503_091808_melville.all.mb58.gz 79.58MB Kongsberg multibeam vendor format
0135_20110503_094806_melville.all.mb58.gz 82.29MB Kongsberg multibeam vendor format
0136_20110503_101814_melville.all.mb58.gz 82.26MB Kongsberg multibeam vendor format
0137_20110503_104815_melville.all.mb58.gz 79.00MB Kongsberg multibeam vendor format
0138_20110503_111806_melville.all.mb58.gz 75.52MB Kongsberg multibeam vendor format
0139_20110503_114811_melville.all.mb58.gz 76.91MB Kongsberg multibeam vendor format
0140_20110503_121813_melville.all.mb58.gz 42.94MB Kongsberg multibeam vendor format
0141_20110503_231811_melville.all.mb58.gz 81.15MB Kongsberg multibeam vendor format
0142_20110503_234814_melville.all.mb58.gz 82.16MB Kongsberg multibeam vendor format
0143_20110504_001810_melville.all.mb58.gz 89.72MB Kongsberg multibeam vendor format
0144_20110504_004813_melville.all.mb58.gz 76.37MB Kongsberg multibeam vendor format
0145_20110504_011818_melville.all.mb58.gz 73.42MB Kongsberg multibeam vendor format
0146_20110504_014813_melville.all.mb58.gz 77.94MB Kongsberg multibeam vendor format
0147_20110504_021813_melville.all.mb58.gz 77.39MB Kongsberg multibeam vendor format
0148_20110504_024812_melville.all.mb58.gz 80.36MB Kongsberg multibeam vendor format
0149_20110504_031815_melville.all.mb58.gz 71.55MB Kongsberg multibeam vendor format
0150_20110504_034819_melville.all.mb58.gz 68.97MB Kongsberg multibeam vendor format
0151_20110504_041815_melville.all.mb58.gz 73.00MB Kongsberg multibeam vendor format
0152_20110504_044804_melville.all.mb58.gz 77.88MB Kongsberg multibeam vendor format
0153_20110504_051814_melville.all.mb58.gz 77.61MB Kongsberg multibeam vendor format
0154_20110504_054814_melville.all.mb58.gz 76.48MB Kongsberg multibeam vendor format
0155_20110504_061804_melville.all.mb58.gz 80.37MB Kongsberg multibeam vendor format
0156_20110504_064812_melville.all.mb58.gz 80.50MB Kongsberg multibeam vendor format
0157_20110504_071807_melville.all.mb58.gz 74.47MB Kongsberg multibeam vendor format
0158_20110504_074816_melville.all.mb58.gz 75.30MB Kongsberg multibeam vendor format
0159_20110504_081804_melville.all.mb58.gz 75.03MB Kongsberg multibeam vendor format
0160_20110504_084804_melville.all.mb58.gz 76.73MB Kongsberg multibeam vendor format
0161_20110504_091817_melville.all.mb58.gz 75.22MB Kongsberg multibeam vendor format
0162_20110504_094814_melville.all.mb58.gz 78.16MB Kongsberg multibeam vendor format
0163_20110504_101810_melville.all.mb58.gz 75.20MB Kongsberg multibeam vendor format
0164_20110504_104815_melville.all.mb58.gz 76.22MB Kongsberg multibeam vendor format
0165_20110504_111817_melville.all.mb58.gz 73.73MB Kongsberg multibeam vendor format
0166_20110504_114812_melville.all.mb58.gz 75.82MB Kongsberg multibeam vendor format
0167_20110504_121804_melville.all.mb58.gz 79.48MB Kongsberg multibeam vendor format
0168_20110504_124805_melville.all.mb58.gz 82.07MB Kongsberg multibeam vendor format
0169_20110504_131805_melville.all.mb58.gz 83.89MB Kongsberg multibeam vendor format
0170_20110504_134813_melville.all.mb58.gz 83.46MB Kongsberg multibeam vendor format
0171_20110504_141812_melville.all.mb58.gz 82.99MB Kongsberg multibeam vendor format
0172_20110504_144813_melville.all.mb58.gz 82.75MB Kongsberg multibeam vendor format
0173_20110504_151804_melville.all.mb58.gz 82.04MB Kongsberg multibeam vendor format
0174_20110504_154803_melville.all.mb58.gz 80.94MB Kongsberg multibeam vendor format
0175_20110504_161809_melville.all.mb58.gz 79.12MB Kongsberg multibeam vendor format
0176_20110504_164811_melville.all.mb58.gz 79.56MB Kongsberg multibeam vendor format
0177_20110504_171817_melville.all.mb58.gz 72.57MB Kongsberg multibeam vendor format
0178_20110504_174808_melville.all.mb58.gz 78.90MB Kongsberg multibeam vendor format
0179_20110504_181807_melville.all.mb58.gz 77.37MB Kongsberg multibeam vendor format
0180_20110504_184811_melville.all.mb58.gz 79.01MB Kongsberg multibeam vendor format
0181_20110504_191808_melville.all.mb58.gz 74.09MB Kongsberg multibeam vendor format
0182_20110504_194807_melville.all.mb58.gz 78.27MB Kongsberg multibeam vendor format
0183_20110504_201816_melville.all.mb58.gz 79.82MB Kongsberg multibeam vendor format
0184_20110504_204804_melville.all.mb58.gz 78.79MB Kongsberg multibeam vendor format
0185_20110504_211809_melville.all.mb58.gz 75.03MB Kongsberg multibeam vendor format
0186_20110504_214809_melville.all.mb58.gz 81.99MB Kongsberg multibeam vendor format
0187_20110504_221815_melville.all.mb58.gz 82.33MB Kongsberg multibeam vendor format
0188_20110504_224803_melville.all.mb58.gz 83.23MB Kongsberg multibeam vendor format
0189_20110504_231811_melville.all.mb58.gz 80.22MB Kongsberg multibeam vendor format
0190_20110504_234806_melville.all.mb58.gz 78.03MB Kongsberg multibeam vendor format
0191_20110505_001804_melville.all.mb58.gz 82.21MB Kongsberg multibeam vendor format
0192_20110505_004808_melville.all.mb58.gz 82.33MB Kongsberg multibeam vendor format
0193_20110505_011806_melville.all.mb58.gz 81.39MB Kongsberg multibeam vendor format
0194_20110505_014809_melville.all.mb58.gz 82.40MB Kongsberg multibeam vendor format
0195_20110505_021816_melville.all.mb58.gz 81.54MB Kongsberg multibeam vendor format
0196_20110505_024813_melville.all.mb58.gz 78.87MB Kongsberg multibeam vendor format
0197_20110505_031810_melville.all.mb58.gz 76.82MB Kongsberg multibeam vendor format
0198_20110505_034810_melville.all.mb58.gz 73.46MB Kongsberg multibeam vendor format
0199_20110505_041808_melville.all.mb58.gz 76.75MB Kongsberg multibeam vendor format
0200_20110505_044810_melville.all.mb58.gz 78.45MB Kongsberg multibeam vendor format
0201_20110505_051812_melville.all.mb58.gz 80.01MB Kongsberg multibeam vendor format
0202_20110505_054819_melville.all.mb58.gz 76.21MB Kongsberg multibeam vendor format
0203_20110505_061813_melville.all.mb58.gz 78.65MB Kongsberg multibeam vendor format
0204_20110505_064816_melville.all.mb58.gz 77.79MB Kongsberg multibeam vendor format
0205_20110505_071806_melville.all.mb58.gz 77.76MB Kongsberg multibeam vendor format
0206_20110505_074810_melville.all.mb58.gz 73.18MB Kongsberg multibeam vendor format
0207_20110505_081808_melville.all.mb58.gz 72.91MB Kongsberg multibeam vendor format
0208_20110505_084808_melville.all.mb58.gz 71.87MB Kongsberg multibeam vendor format
0209_20110505_091809_melville.all.mb58.gz 72.92MB Kongsberg multibeam vendor format
0210_20110505_094804_melville.all.mb58.gz 73.25MB Kongsberg multibeam vendor format
0211_20110505_101806_melville.all.mb58.gz 73.00MB Kongsberg multibeam vendor format
0212_20110505_104810_melville.all.mb58.gz 73.26MB Kongsberg multibeam vendor format
0213_20110505_111807_melville.all.mb58.gz 72.89MB Kongsberg multibeam vendor format
0214_20110505_114805_melville.all.mb58.gz 73.87MB Kongsberg multibeam vendor format
0215_20110505_121803_melville.all.mb58.gz 74.43MB Kongsberg multibeam vendor format
0216_20110505_124807_melville.all.mb58.gz 73.23MB Kongsberg multibeam vendor format
0217_20110505_131818_melville.all.mb58.gz 71.11MB Kongsberg multibeam vendor format
0218_20110505_134814_melville.all.mb58.gz 71.42MB Kongsberg multibeam vendor format
0219_20110505_141814_melville.all.mb58.gz 71.02MB Kongsberg multibeam vendor format
0220_20110505_144805_melville.all.mb58.gz 71.10MB Kongsberg multibeam vendor format
0221_20110505_151812_melville.all.mb58.gz 70.48MB Kongsberg multibeam vendor format
0222_20110505_154806_melville.all.mb58.gz 71.20MB Kongsberg multibeam vendor format
0223_20110505_161815_melville.all.mb58.gz 70.71MB Kongsberg multibeam vendor format
0224_20110505_164810_melville.all.mb58.gz 71.41MB Kongsberg multibeam vendor format
0225_20110505_171816_melville.all.mb58.gz 70.94MB Kongsberg multibeam vendor format
0226_20110505_174815_melville.all.mb58.gz 71.37MB Kongsberg multibeam vendor format
0227_20110505_181811_melville.all.mb58.gz 72.93MB Kongsberg multibeam vendor format
0228_20110505_184809_melville.all.mb58.gz 76.76MB Kongsberg multibeam vendor format
0229_20110505_191811_melville.all.mb58.gz 72.98MB Kongsberg multibeam vendor format
0230_20110505_194811_melville.all.mb58.gz 71.39MB Kongsberg multibeam vendor format
0231_20110505_201816_melville.all.mb58.gz 70.47MB Kongsberg multibeam vendor format
0232_20110505_204803_melville.all.mb58.gz 70.74MB Kongsberg multibeam vendor format
0233_20110505_211811_melville.all.mb58.gz 69.61MB Kongsberg multibeam vendor format
0234_20110505_214806_melville.all.mb58.gz 70.65MB Kongsberg multibeam vendor format
0235_20110505_221812_melville.all.mb58.gz 70.72MB Kongsberg multibeam vendor format
0236_20110505_224811_melville.all.mb58.gz 70.82MB Kongsberg multibeam vendor format
0237_20110505_231814_melville.all.mb58.gz 71.51MB Kongsberg multibeam vendor format
0238_20110505_234808_melville.all.mb58.gz 71.05MB Kongsberg multibeam vendor format
0239_20110506_001811_melville.all.mb58.gz 71.12MB Kongsberg multibeam vendor format
0240_20110506_004814_melville.all.mb58.gz 71.14MB Kongsberg multibeam vendor format
0241_20110506_011806_melville.all.mb58.gz 70.81MB Kongsberg multibeam vendor format
0242_20110506_014807_melville.all.mb58.gz 71.67MB Kongsberg multibeam vendor format
0243_20110506_021819_melville.all.mb58.gz 71.14MB Kongsberg multibeam vendor format
0244_20110506_024813_melville.all.mb58.gz 70.91MB Kongsberg multibeam vendor format
0245_20110506_031808_melville.all.mb58.gz 72.17MB Kongsberg multibeam vendor format
0246_20110506_034817_melville.all.mb58.gz 70.99MB Kongsberg multibeam vendor format
0247_20110506_041814_melville.all.mb58.gz 71.19MB Kongsberg multibeam vendor format
0248_20110506_044815_melville.all.mb58.gz 70.69MB Kongsberg multibeam vendor format
0249_20110506_051807_melville.all.mb58.gz 71.52MB Kongsberg multibeam vendor format
0250_20110506_054809_melville.all.mb58.gz 69.85MB Kongsberg multibeam vendor format
0251_20110506_061808_melville.all.mb58.gz 71.29MB Kongsberg multibeam vendor format
0252_20110506_064806_melville.all.mb58.gz 72.35MB Kongsberg multibeam vendor format
0253_20110506_071807_melville.all.mb58.gz 72.27MB Kongsberg multibeam vendor format
0254_20110506_074804_melville.all.mb58.gz 72.02MB Kongsberg multibeam vendor format
0255_20110506_081804_melville.all.mb58.gz 71.05MB Kongsberg multibeam vendor format
0256_20110506_084802_melville.all.mb58.gz 71.65MB Kongsberg multibeam vendor format
0257_20110506_091805_melville.all.mb58.gz 71.47MB Kongsberg multibeam vendor format
0258_20110506_094803_melville.all.mb58.gz 71.48MB Kongsberg multibeam vendor format
0259_20110506_101808_melville.all.mb58.gz 74.68MB Kongsberg multibeam vendor format
0260_20110506_104815_melville.all.mb58.gz 72.01MB Kongsberg multibeam vendor format
0261_20110506_111812_melville.all.mb58.gz 70.78MB Kongsberg multibeam vendor format
0262_20110506_114814_melville.all.mb58.gz 70.80MB Kongsberg multibeam vendor format
0263_20110506_121812_melville.all.mb58.gz 71.05MB Kongsberg multibeam vendor format
0264_20110506_124809_melville.all.mb58.gz 71.70MB Kongsberg multibeam vendor format
0265_20110506_131815_melville.all.mb58.gz 70.08MB Kongsberg multibeam vendor format
0266_20110506_134808_melville.all.mb58.gz 70.84MB Kongsberg multibeam vendor format
0267_20110506_141808_melville.all.mb58.gz 71.47MB Kongsberg multibeam vendor format
0268_20110506_144818_melville.all.mb58.gz 70.79MB Kongsberg multibeam vendor format
0269_20110506_151806_melville.all.mb58.gz 71.33MB Kongsberg multibeam vendor format
0270_20110506_154810_melville.all.mb58.gz 70.58MB Kongsberg multibeam vendor format
0271_20110506_161801_melville.all.mb58.gz 73.81MB Kongsberg multibeam vendor format
0272_20110506_164805_melville.all.mb58.gz 73.32MB Kongsberg multibeam vendor format
0273_20110506_171807_melville.all.mb58.gz 72.16MB Kongsberg multibeam vendor format
0274_20110506_174802_melville.all.mb58.gz 73.53MB Kongsberg multibeam vendor format
0275_20110506_181810_melville.all.mb58.gz 72.45MB Kongsberg multibeam vendor format
0276_20110506_184816_melville.all.mb58.gz 71.49MB Kongsberg multibeam vendor format
0277_20110506_191805_melville.all.mb58.gz 71.88MB Kongsberg multibeam vendor format
0278_20110506_194806_melville.all.mb58.gz 72.12MB Kongsberg multibeam vendor format
0279_20110506_201816_melville.all.mb58.gz 71.97MB Kongsberg multibeam vendor format
0280_20110506_204812_melville.all.mb58.gz 71.19MB Kongsberg multibeam vendor format
0281_20110506_211810_melville.all.mb58.gz 72.55MB Kongsberg multibeam vendor format
0282_20110506_214816_melville.all.mb58.gz 71.31MB Kongsberg multibeam vendor format
0283_20110506_221815_melville.all.mb58.gz 70.54MB Kongsberg multibeam vendor format
0284_20110506_224813_melville.all.mb58.gz 71.58MB Kongsberg multibeam vendor format
0285_20110506_231803_melville.all.mb58.gz 71.65MB Kongsberg multibeam vendor format
0286_20110506_234802_melville.all.mb58.gz 72.46MB Kongsberg multibeam vendor format
0287_20110507_001816_melville.all.mb58.gz 70.82MB Kongsberg multibeam vendor format
0288_20110507_004804_melville.all.mb58.gz 72.40MB Kongsberg multibeam vendor format
0289_20110507_011813_melville.all.mb58.gz 71.25MB Kongsberg multibeam vendor format
0290_20110507_014802_melville.all.mb58.gz 72.53MB Kongsberg multibeam vendor format
0291_20110507_021814_melville.all.mb58.gz 71.43MB Kongsberg multibeam vendor format
0292_20110507_024810_melville.all.mb58.gz 73.46MB Kongsberg multibeam vendor format
0293_20110507_031815_melville.all.mb58.gz 72.15MB Kongsberg multibeam vendor format
0294_20110507_034806_melville.all.mb58.gz 72.34MB Kongsberg multibeam vendor format
0295_20110507_041800_melville.all.mb58.gz 71.48MB Kongsberg multibeam vendor format
0296_20110507_044805_melville.all.mb58.gz 71.06MB Kongsberg multibeam vendor format
0297_20110507_051803_melville.all.mb58.gz 70.36MB Kongsberg multibeam vendor format
0298_20110507_054802_melville.all.mb58.gz 69.41MB Kongsberg multibeam vendor format
0299_20110507_061807_melville.all.mb58.gz 67.78MB Kongsberg multibeam vendor format
0300_20110507_064806_melville.all.mb58.gz 69.32MB Kongsberg multibeam vendor format
0301_20110507_071802_melville.all.mb58.gz 70.10MB Kongsberg multibeam vendor format
0302_20110507_074806_melville.all.mb58.gz 53.28MB Kongsberg multibeam vendor format
0303_20110507_104035_melville.all.mb58.gz 69.44MB Kongsberg multibeam vendor format
0304_20110507_111035_melville.all.mb58.gz 70.24MB Kongsberg multibeam vendor format
0305_20110507_114034_melville.all.mb58.gz 70.37MB Kongsberg multibeam vendor format
0306_20110507_121032_melville.all.mb58.gz 70.39MB Kongsberg multibeam vendor format
0307_20110507_124039_melville.all.mb58.gz 70.47MB Kongsberg multibeam vendor format
0308_20110507_131049_melville.all.mb58.gz 5.87MB Kongsberg multibeam vendor format
0311_20110507_162140_melville.all.mb58.gz 68.15MB Kongsberg multibeam vendor format
0312_20110507_165142_melville.all.mb58.gz 68.29MB Kongsberg multibeam vendor format
0313_20110507_172148_melville.all.mb58.gz 67.37MB Kongsberg multibeam vendor format
0314_20110507_175136_melville.all.mb58.gz 68.81MB Kongsberg multibeam vendor format
0315_20110507_182149_melville.all.mb58.gz 66.11MB Kongsberg multibeam vendor format
0316_20110507_185153_melville.all.mb58.gz 66.68MB Kongsberg multibeam vendor format
0317_20110507_192151_melville.all.mb58.gz 65.49MB Kongsberg multibeam vendor format
0318_20110507_195153_melville.all.mb58.gz 65.73MB Kongsberg multibeam vendor format
0319_20110507_202139_melville.all.mb58.gz 67.59MB Kongsberg multibeam vendor format
0320_20110507_205136_melville.all.mb58.gz 71.58MB Kongsberg multibeam vendor format
0321_20110507_212140_melville.all.mb58.gz 71.85MB Kongsberg multibeam vendor format
0322_20110507_215145_melville.all.mb58.gz 70.85MB Kongsberg multibeam vendor format
0323_20110507_222138_melville.all.mb58.gz 71.01MB Kongsberg multibeam vendor format
0324_20110507_225136_melville.all.mb58.gz 71.53MB Kongsberg multibeam vendor format
0325_20110507_232140_melville.all.mb58.gz 71.48MB Kongsberg multibeam vendor format
0326_20110507_235135_melville.all.mb58.gz 71.12MB Kongsberg multibeam vendor format
0327_20110508_002147_melville.all.mb58.gz 71.08MB Kongsberg multibeam vendor format
0328_20110508_005137_melville.all.mb58.gz 71.84MB Kongsberg multibeam vendor format
0329_20110508_012147_melville.all.mb58.gz 71.56MB Kongsberg multibeam vendor format
0330_20110508_015149_melville.all.mb58.gz 71.58MB Kongsberg multibeam vendor format
0331_20110508_022139_melville.all.mb58.gz 71.04MB Kongsberg multibeam vendor format
0332_20110508_025146_melville.all.mb58.gz 70.26MB Kongsberg multibeam vendor format
0333_20110508_032135_melville.all.mb58.gz 72.02MB Kongsberg multibeam vendor format
0334_20110508_035141_melville.all.mb58.gz 71.42MB Kongsberg multibeam vendor format
0335_20110508_042145_melville.all.mb58.gz 70.79MB Kongsberg multibeam vendor format
0336_20110508_045140_melville.all.mb58.gz 72.45MB Kongsberg multibeam vendor format
0337_20110508_052148_melville.all.mb58.gz 71.80MB Kongsberg multibeam vendor format
0338_20110508_055136_melville.all.mb58.gz 72.57MB Kongsberg multibeam vendor format
0339_20110508_062146_melville.all.mb58.gz 71.01MB Kongsberg multibeam vendor format
0340_20110508_065139_melville.all.mb58.gz 71.69MB Kongsberg multibeam vendor format
0341_20110508_072144_melville.all.mb58.gz 69.88MB Kongsberg multibeam vendor format
0342_20110508_075139_melville.all.mb58.gz 69.31MB Kongsberg multibeam vendor format
0343_20110508_082149_melville.all.mb58.gz 69.63MB Kongsberg multibeam vendor format
0344_20110508_085144_melville.all.mb58.gz 69.79MB Kongsberg multibeam vendor format
0345_20110508_092139_melville.all.mb58.gz 69.85MB Kongsberg multibeam vendor format
0346_20110508_095135_melville.all.mb58.gz 70.65MB Kongsberg multibeam vendor format
0347_20110508_102140_melville.all.mb58.gz 71.24MB Kongsberg multibeam vendor format
0348_20110508_105146_melville.all.mb58.gz 70.98MB Kongsberg multibeam vendor format
0349_20110508_112136_melville.all.mb58.gz 70.79MB Kongsberg multibeam vendor format
0350_20110508_115135_melville.all.mb58.gz 72.60MB Kongsberg multibeam vendor format
0351_20110508_122143_melville.all.mb58.gz 71.42MB Kongsberg multibeam vendor format
0352_20110508_125143_melville.all.mb58.gz 70.83MB Kongsberg multibeam vendor format
0353_20110508_132140_melville.all.mb58.gz 19.44MB Kongsberg multibeam vendor format
0354_20110508_151842_melville.all.mb58.gz 72.15MB Kongsberg multibeam vendor format
0355_20110508_154851_melville.all.mb58.gz 70.50MB Kongsberg multibeam vendor format
0356_20110508_161856_melville.all.mb58.gz 72.68MB Kongsberg multibeam vendor format
0357_20110508_164846_melville.all.mb58.gz 71.31MB Kongsberg multibeam vendor format
0358_20110508_171845_melville.all.mb58.gz 73.92MB Kongsberg multibeam vendor format
0359_20110508_174847_melville.all.mb58.gz 72.39MB Kongsberg multibeam vendor format
0360_20110508_181854_melville.all.mb58.gz 72.78MB Kongsberg multibeam vendor format
0361_20110508_184852_melville.all.mb58.gz 74.02MB Kongsberg multibeam vendor format
0362_20110508_191853_melville.all.mb58.gz 72.51MB Kongsberg multibeam vendor format
0363_20110508_194856_melville.all.mb58.gz 71.27MB Kongsberg multibeam vendor format
0364_20110508_201846_melville.all.mb58.gz 70.69MB Kongsberg multibeam vendor format
0365_20110508_204842_melville.all.mb58.gz 72.39MB Kongsberg multibeam vendor format
0366_20110508_211855_melville.all.mb58.gz 72.48MB Kongsberg multibeam vendor format
0367_20110508_214847_melville.all.mb58.gz 72.76MB Kongsberg multibeam vendor format
0368_20110508_221856_melville.all.mb58.gz 71.50MB Kongsberg multibeam vendor format
0369_20110508_224843_melville.all.mb58.gz 72.34MB Kongsberg multibeam vendor format
0370_20110508_231846_melville.all.mb58.gz 72.85MB Kongsberg multibeam vendor format
0371_20110508_234854_melville.all.mb58.gz 70.76MB Kongsberg multibeam vendor format
0372_20110509_001847_melville.all.mb58.gz 72.95MB Kongsberg multibeam vendor format
0373_20110509_004854_melville.all.mb58.gz 71.56MB Kongsberg multibeam vendor format
0374_20110509_011849_melville.all.mb58.gz 72.14MB Kongsberg multibeam vendor format
0375_20110509_014849_melville.all.mb58.gz 72.13MB Kongsberg multibeam vendor format
0376_20110509_021844_melville.all.mb58.gz 72.85MB Kongsberg multibeam vendor format
0377_20110509_024846_melville.all.mb58.gz 72.13MB Kongsberg multibeam vendor format
0378_20110509_031846_melville.all.mb58.gz 72.07MB Kongsberg multibeam vendor format
0379_20110509_034847_melville.all.mb58.gz 72.66MB Kongsberg multibeam vendor format
0380_20110509_041853_melville.all.mb58.gz 72.43MB Kongsberg multibeam vendor format
0381_20110509_044853_melville.all.mb58.gz 72.86MB Kongsberg multibeam vendor format
0382_20110509_051851_melville.all.mb58.gz 72.97MB Kongsberg multibeam vendor format
0383_20110509_054851_melville.all.mb58.gz 71.87MB Kongsberg multibeam vendor format
0384_20110509_061848_melville.all.mb58.gz 73.55MB Kongsberg multibeam vendor format
0385_20110509_064846_melville.all.mb58.gz 73.87MB Kongsberg multibeam vendor format
0386_20110509_071844_melville.all.mb58.gz 72.95MB Kongsberg multibeam vendor format
0387_20110509_074842_melville.all.mb58.gz 70.67MB Kongsberg multibeam vendor format
0388_20110509_081845_melville.all.mb58.gz 71.59MB Kongsberg multibeam vendor format
0389_20110509_084847_melville.all.mb58.gz 32.80MB Kongsberg multibeam vendor format
0390_20110509_095635_melville.all.mb58.gz 72.18MB Kongsberg multibeam vendor format
0391_20110509_102649_melville.all.mb58.gz 70.58MB Kongsberg multibeam vendor format
0392_20110509_105640_melville.all.mb58.gz 71.20MB Kongsberg multibeam vendor format
0393_20110509_112644_melville.all.mb58.gz 71.46MB Kongsberg multibeam vendor format
0394_20110509_115638_melville.all.mb58.gz 70.29MB Kongsberg multibeam vendor format
0395_20110509_122636_melville.all.mb58.gz 71.51MB Kongsberg multibeam vendor format
0396_20110509_125640_melville.all.mb58.gz 74.77MB Kongsberg multibeam vendor format
0397_20110509_132649_melville.all.mb58.gz 71.54MB Kongsberg multibeam vendor format
0398_20110509_135638_melville.all.mb58.gz 72.71MB Kongsberg multibeam vendor format
0399_20110509_142646_melville.all.mb58.gz 72.81MB Kongsberg multibeam vendor format
0400_20110509_145637_melville.all.mb58.gz 73.89MB Kongsberg multibeam vendor format
0401_20110509_152649_melville.all.mb58.gz 73.17MB Kongsberg multibeam vendor format
0402_20110509_155635_melville.all.mb58.gz 74.26MB Kongsberg multibeam vendor format
0403_20110509_162648_melville.all.mb58.gz 73.29MB Kongsberg multibeam vendor format
0404_20110509_165647_melville.all.mb58.gz 73.80MB Kongsberg multibeam vendor format
0405_20110509_172636_melville.all.mb58.gz 73.42MB Kongsberg multibeam vendor format
0406_20110509_175643_melville.all.mb58.gz 72.86MB Kongsberg multibeam vendor format
0407_20110509_182648_melville.all.mb58.gz 70.28MB Kongsberg multibeam vendor format
0408_20110509_185638_melville.all.mb58.gz 72.57MB Kongsberg multibeam vendor format
0409_20110509_192638_melville.all.mb58.gz 73.44MB Kongsberg multibeam vendor format
0410_20110509_195640_melville.all.mb58.gz 72.96MB Kongsberg multibeam vendor format
0411_20110509_202641_melville.all.mb58.gz 73.04MB Kongsberg multibeam vendor format
0412_20110509_205641_melville.all.mb58.gz 73.55MB Kongsberg multibeam vendor format
0413_20110509_212644_melville.all.mb58.gz 73.35MB Kongsberg multibeam vendor format
0414_20110509_215636_melville.all.mb58.gz 73.64MB Kongsberg multibeam vendor format
0415_20110509_222639_melville.all.mb58.gz 73.60MB Kongsberg multibeam vendor format
0416_20110509_225646_melville.all.mb58.gz 73.11MB Kongsberg multibeam vendor format
0417_20110509_232648_melville.all.mb58.gz 72.80MB Kongsberg multibeam vendor format
0418_20110509_235643_melville.all.mb58.gz 73.12MB Kongsberg multibeam vendor format
0419_20110510_002641_melville.all.mb58.gz 73.62MB Kongsberg multibeam vendor format
0420_20110510_005648_melville.all.mb58.gz 72.76MB Kongsberg multibeam vendor format
0421_20110510_012636_melville.all.mb58.gz 73.59MB Kongsberg multibeam vendor format
0422_20110510_015646_melville.all.mb58.gz 73.13MB Kongsberg multibeam vendor format
0423_20110510_022640_melville.all.mb58.gz 73.70MB Kongsberg multibeam vendor format
0424_20110510_025645_melville.all.mb58.gz 73.11MB Kongsberg multibeam vendor format
0425_20110510_032635_melville.all.mb58.gz 73.31MB Kongsberg multibeam vendor format
0426_20110510_035638_melville.all.mb58.gz 73.40MB Kongsberg multibeam vendor format
0427_20110510_042643_melville.all.mb58.gz 73.48MB Kongsberg multibeam vendor format
0428_20110510_045640_melville.all.mb58.gz 72.63MB Kongsberg multibeam vendor format
0429_20110510_052636_melville.all.mb58.gz 73.09MB Kongsberg multibeam vendor format
0430_20110510_055639_melville.all.mb58.gz 73.05MB Kongsberg multibeam vendor format
0431_20110510_062636_melville.all.mb58.gz 73.24MB Kongsberg multibeam vendor format
0432_20110510_065638_melville.all.mb58.gz 73.40MB Kongsberg multibeam vendor format
0433_20110510_072648_melville.all.mb58.gz 71.88MB Kongsberg multibeam vendor format
0434_20110510_075634_melville.all.mb58.gz 72.96MB Kongsberg multibeam vendor format
0435_20110510_082642_melville.all.mb58.gz 71.97MB Kongsberg multibeam vendor format
0436_20110510_085638_melville.all.mb58.gz 72.56MB Kongsberg multibeam vendor format
0437_20110510_092634_melville.all.mb58.gz 72.15MB Kongsberg multibeam vendor format
0438_20110510_095641_melville.all.mb58.gz 70.99MB Kongsberg multibeam vendor format
0439_20110510_102641_melville.all.mb58.gz 71.51MB Kongsberg multibeam vendor format
0440_20110510_105648_melville.all.mb58.gz 58.95MB Kongsberg multibeam vendor format
0441_20110510_121226_melville.all.mb58.gz 72.70MB Kongsberg multibeam vendor format
0442_20110510_124237_melville.all.mb58.gz 73.64MB Kongsberg multibeam vendor format
0443_20110510_131233_melville.all.mb58.gz 73.63MB Kongsberg multibeam vendor format
0444_20110510_134236_melville.all.mb58.gz 73.11MB Kongsberg multibeam vendor format
0445_20110510_141236_melville.all.mb58.gz 73.04MB Kongsberg multibeam vendor format
0446_20110510_144230_melville.all.mb58.gz 73.24MB Kongsberg multibeam vendor format
0447_20110510_151230_melville.all.mb58.gz 73.28MB Kongsberg multibeam vendor format
0448_20110510_154233_melville.all.mb58.gz 73.22MB Kongsberg multibeam vendor format
0449_20110510_161233_melville.all.mb58.gz 73.39MB Kongsberg multibeam vendor format
0450_20110510_164236_melville.all.mb58.gz 72.87MB Kongsberg multibeam vendor format
0451_20110510_171227_melville.all.mb58.gz 73.64MB Kongsberg multibeam vendor format
0452_20110510_174236_melville.all.mb58.gz 73.84MB Kongsberg multibeam vendor format
0453_20110510_181232_melville.all.mb58.gz 73.20MB Kongsberg multibeam vendor format
0454_20110510_184228_melville.all.mb58.gz 73.55MB Kongsberg multibeam vendor format
0455_20110510_191224_melville.all.mb58.gz 74.24MB Kongsberg multibeam vendor format
0456_20110510_194234_melville.all.mb58.gz 73.99MB Kongsberg multibeam vendor format
0457_20110510_201231_melville.all.mb58.gz 72.98MB Kongsberg multibeam vendor format
0458_20110510_204223_melville.all.mb58.gz 74.09MB Kongsberg multibeam vendor format
0459_20110510_211224_melville.all.mb58.gz 74.37MB Kongsberg multibeam vendor format
0460_20110510_214227_melville.all.mb58.gz 74.47MB Kongsberg multibeam vendor format
0461_20110510_221230_melville.all.mb58.gz 73.61MB Kongsberg multibeam vendor format
0462_20110510_224223_melville.all.mb58.gz 74.51MB Kongsberg multibeam vendor format
0463_20110510_231235_melville.all.mb58.gz 43.64MB Kongsberg multibeam vendor format
0464_20110511_045934_melville.all.mb58.gz 70.48MB Kongsberg multibeam vendor format
0465_20110511_052920_melville.all.mb58.gz 72.03MB Kongsberg multibeam vendor format
0466_20110511_055931_melville.all.mb58.gz 72.28MB Kongsberg multibeam vendor format
0467_20110511_062929_melville.all.mb58.gz 46.86MB Kongsberg multibeam vendor format
0468_20110511_091121_melville.all.mb58.gz 73.21MB Kongsberg multibeam vendor format
0469_20110511_094122_melville.all.mb58.gz 72.80MB Kongsberg multibeam vendor format
0470_20110511_101115_melville.all.mb58.gz 73.43MB Kongsberg multibeam vendor format
0471_20110511_104117_melville.all.mb58.gz 79.10MB Kongsberg multibeam vendor format
0472_20110511_111127_melville.all.mb58.gz 83.23MB Kongsberg multibeam vendor format
0473_20110511_114131_melville.all.mb58.gz 81.24MB Kongsberg multibeam vendor format
0474_20110511_121128_melville.all.mb58.gz 82.92MB Kongsberg multibeam vendor format
0475_20110511_124131_melville.all.mb58.gz 79.32MB Kongsberg multibeam vendor format
0476_20110511_131127_melville.all.mb58.gz 82.95MB Kongsberg multibeam vendor format
0477_20110511_134128_melville.all.mb58.gz 81.48MB Kongsberg multibeam vendor format
0478_20110511_141124_melville.all.mb58.gz 79.53MB Kongsberg multibeam vendor format
0479_20110511_144123_melville.all.mb58.gz 80.99MB Kongsberg multibeam vendor format
0480_20110511_151127_melville.all.mb58.gz 80.01MB Kongsberg multibeam vendor format
0481_20110511_154130_melville.all.mb58.gz 78.89MB Kongsberg multibeam vendor format
0482_20110511_161122_melville.all.mb58.gz 80.25MB Kongsberg multibeam vendor format
0483_20110511_164120_melville.all.mb58.gz 79.66MB Kongsberg multibeam vendor format
0484_20110511_171126_melville.all.mb58.gz 80.31MB Kongsberg multibeam vendor format
0485_20110511_174126_melville.all.mb58.gz 79.98MB Kongsberg multibeam vendor format
0486_20110511_181126_melville.all.mb58.gz 79.87MB Kongsberg multibeam vendor format
0487_20110511_184118_melville.all.mb58.gz 81.52MB Kongsberg multibeam vendor format
0488_20110511_191120_melville.all.mb58.gz 81.62MB Kongsberg multibeam vendor format
0489_20110511_194123_melville.all.mb58.gz 79.85MB Kongsberg multibeam vendor format
0490_20110511_201116_melville.all.mb58.gz 80.99MB Kongsberg multibeam vendor format
0491_20110511_204122_melville.all.mb58.gz 80.05MB Kongsberg multibeam vendor format
0492_20110511_211124_melville.all.mb58.gz 79.86MB Kongsberg multibeam vendor format
0493_20110511_214124_melville.all.mb58.gz 83.32MB Kongsberg multibeam vendor format
0494_20110511_221121_melville.all.mb58.gz 83.27MB Kongsberg multibeam vendor format
0495_20110511_224118_melville.all.mb58.gz 82.92MB Kongsberg multibeam vendor format
0496_20110511_231116_melville.all.mb58.gz 83.37MB Kongsberg multibeam vendor format
0497_20110511_234121_melville.all.mb58.gz 83.87MB Kongsberg multibeam vendor format
0498_20110512_001123_melville.all.mb58.gz 85.17MB Kongsberg multibeam vendor format
0499_20110512_004115_melville.all.mb58.gz 83.97MB Kongsberg multibeam vendor format
0500_20110512_011127_melville.all.mb58.gz 83.34MB Kongsberg multibeam vendor format
0501_20110512_014120_melville.all.mb58.gz 84.66MB Kongsberg multibeam vendor format
0502_20110512_021122_melville.all.mb58.gz 83.72MB Kongsberg multibeam vendor format
0503_20110512_024116_melville.all.mb58.gz 85.25MB Kongsberg multibeam vendor format
0504_20110512_031122_melville.all.mb58.gz 84.31MB Kongsberg multibeam vendor format
0505_20110512_034114_melville.all.mb58.gz 82.43MB Kongsberg multibeam vendor format
0506_20110512_041128_melville.all.mb58.gz 82.63MB Kongsberg multibeam vendor format
0507_20110512_044117_melville.all.mb58.gz 85.91MB Kongsberg multibeam vendor format
0508_20110512_051123_melville.all.mb58.gz 85.59MB Kongsberg multibeam vendor format
0509_20110512_054121_melville.all.mb58.gz 86.80MB Kongsberg multibeam vendor format
0510_20110512_061115_melville.all.mb58.gz 85.57MB Kongsberg multibeam vendor format
0511_20110512_064120_melville.all.mb58.gz 87.63MB Kongsberg multibeam vendor format
0512_20110512_071119_melville.all.mb58.gz 87.69MB Kongsberg multibeam vendor format
0513_20110512_074124_melville.all.mb58.gz 87.62MB Kongsberg multibeam vendor format
0514_20110512_081120_melville.all.mb58.gz 87.31MB Kongsberg multibeam vendor format
0515_20110512_084125_melville.all.mb58.gz 85.72MB Kongsberg multibeam vendor format
0516_20110512_091114_melville.all.mb58.gz 84.64MB Kongsberg multibeam vendor format
0517_20110512_094115_melville.all.mb58.gz 85.86MB Kongsberg multibeam vendor format
0518_20110512_101118_melville.all.mb58.gz 86.67MB Kongsberg multibeam vendor format
0519_20110512_104123_melville.all.mb58.gz 84.97MB Kongsberg multibeam vendor format
0520_20110512_111116_melville.all.mb58.gz 84.46MB Kongsberg multibeam vendor format
0521_20110512_114114_melville.all.mb58.gz 35.65MB Kongsberg multibeam vendor format
0523_20110512_115453_melville.all.mb58.gz 83.12MB Kongsberg multibeam vendor format
0524_20110512_122436_melville.all.mb58.gz 84.03MB Kongsberg multibeam vendor format
0525_20110512_125429_melville.all.mb58.gz 88.74MB Kongsberg multibeam vendor format
0526_20110512_132434_melville.all.mb58.gz 87.62MB Kongsberg multibeam vendor format
0527_20110512_135430_melville.all.mb58.gz 85.36MB Kongsberg multibeam vendor format
0528_20110512_142434_melville.all.mb58.gz 86.05MB Kongsberg multibeam vendor format
0529_20110512_145425_melville.all.mb58.gz 85.83MB Kongsberg multibeam vendor format
0530_20110512_152433_melville.all.mb58.gz 87.19MB Kongsberg multibeam vendor format
0531_20110512_155429_melville.all.mb58.gz 85.50MB Kongsberg multibeam vendor format
0532_20110512_162423_melville.all.mb58.gz 85.89MB Kongsberg multibeam vendor format
0533_20110512_165435_melville.all.mb58.gz 87.85MB Kongsberg multibeam vendor format
0534_20110512_172424_melville.all.mb58.gz 85.95MB Kongsberg multibeam vendor format
0535_20110512_175429_melville.all.mb58.gz 81.73MB Kongsberg multibeam vendor format
0536_20110512_182426_melville.all.mb58.gz 80.87MB Kongsberg multibeam vendor format
0537_20110512_185436_melville.all.mb58.gz 80.42MB Kongsberg multibeam vendor format
0538_20110512_192426_melville.all.mb58.gz 80.45MB Kongsberg multibeam vendor format
0539_20110512_195436_melville.all.mb58.gz 79.37MB Kongsberg multibeam vendor format
0540_20110512_202422_melville.all.mb58.gz 89.68MB Kongsberg multibeam vendor format
0541_20110512_205432_melville.all.mb58.gz 85.80MB Kongsberg multibeam vendor format
0542_20110512_212423_melville.all.mb58.gz 39.16MB Kongsberg multibeam vendor format
0543_20110512_220006_melville.all.mb58.gz 84.44MB Kongsberg multibeam vendor format
0544_20110512_223011_melville.all.mb58.gz 86.39MB Kongsberg multibeam vendor format
0545_20110512_230005_melville.all.mb58.gz 82.17MB Kongsberg multibeam vendor format
0546_20110512_233004_melville.all.mb58.gz 79.79MB Kongsberg multibeam vendor format
0547_20110513_000011_melville.all.mb58.gz 86.17MB Kongsberg multibeam vendor format
0548_20110513_003014_melville.all.mb58.gz 80.62MB Kongsberg multibeam vendor format
0549_20110513_010005_melville.all.mb58.gz 79.10MB Kongsberg multibeam vendor format
0550_20110513_013005_melville.all.mb58.gz 81.11MB Kongsberg multibeam vendor format
0551_20110513_020006_melville.all.mb58.gz 85.54MB Kongsberg multibeam vendor format
0552_20110513_023013_melville.all.mb58.gz 88.13MB Kongsberg multibeam vendor format
0553_20110513_030007_melville.all.mb58.gz 89.65MB Kongsberg multibeam vendor format
0554_20110513_033004_melville.all.mb58.gz 89.19MB Kongsberg multibeam vendor format
0555_20110513_040008_melville.all.mb58.gz 87.31MB Kongsberg multibeam vendor format
0556_20110513_043015_melville.all.mb58.gz 84.88MB Kongsberg multibeam vendor format
0557_20110513_050004_melville.all.mb58.gz 85.82MB Kongsberg multibeam vendor format
0558_20110513_053017_melville.all.mb58.gz 84.77MB Kongsberg multibeam vendor format
0559_20110513_060016_melville.all.mb58.gz 86.67MB Kongsberg multibeam vendor format
0560_20110513_063012_melville.all.mb58.gz 87.92MB Kongsberg multibeam vendor format
0561_20110513_070014_melville.all.mb58.gz 86.53MB Kongsberg multibeam vendor format
0562_20110513_073014_melville.all.mb58.gz 86.21MB Kongsberg multibeam vendor format
0563_20110513_080008_melville.all.mb58.gz 85.21MB Kongsberg multibeam vendor format
0564_20110513_083018_melville.all.mb58.gz 85.70MB Kongsberg multibeam vendor format
0565_20110513_090018_melville.all.mb58.gz 82.69MB Kongsberg multibeam vendor format
0566_20110513_093012_melville.all.mb58.gz 83.78MB Kongsberg multibeam vendor format
0567_20110513_100018_melville.all.mb58.gz 86.08MB Kongsberg multibeam vendor format
0568_20110513_103009_melville.all.mb58.gz 85.83MB Kongsberg multibeam vendor format
0569_20110513_110005_melville.all.mb58.gz 86.66MB Kongsberg multibeam vendor format
0570_20110513_113009_melville.all.mb58.gz 86.02MB Kongsberg multibeam vendor format
0571_20110513_120015_melville.all.mb58.gz 84.98MB Kongsberg multibeam vendor format
0572_20110513_123011_melville.all.mb58.gz 84.86MB Kongsberg multibeam vendor format
0573_20110513_130003_melville.all.mb58.gz 85.83MB Kongsberg multibeam vendor format
0574_20110513_133008_melville.all.mb58.gz 84.87MB Kongsberg multibeam vendor format
0575_20110513_140016_melville.all.mb58.gz 85.21MB Kongsberg multibeam vendor format
0576_20110513_143017_melville.all.mb58.gz 42.84MB Kongsberg multibeam vendor format
0577_20110513_195245_melville.all.mb58.gz 81.81MB Kongsberg multibeam vendor format
0578_20110513_202243_melville.all.mb58.gz 84.75MB Kongsberg multibeam vendor format
0579_20110513_205249_melville.all.mb58.gz 80.90MB Kongsberg multibeam vendor format
0580_20110513_212259_melville.all.mb58.gz 80.62MB Kongsberg multibeam vendor format
0581_20110513_215256_melville.all.mb58.gz 84.63MB Kongsberg multibeam vendor format
0582_20110513_222249_melville.all.mb58.gz 81.66MB Kongsberg multibeam vendor format
0583_20110513_225259_melville.all.mb58.gz 80.85MB Kongsberg multibeam vendor format
0584_20110513_232249_melville.all.mb58.gz 83.59MB Kongsberg multibeam vendor format
0585_20110513_235244_melville.all.mb58.gz 85.70MB Kongsberg multibeam vendor format
0586_20110514_002248_melville.all.mb58.gz 84.98MB Kongsberg multibeam vendor format
0587_20110514_005251_melville.all.mb58.gz 84.47MB Kongsberg multibeam vendor format
0588_20110514_012249_melville.all.mb58.gz 85.43MB Kongsberg multibeam vendor format
0589_20110514_015255_melville.all.mb58.gz 84.87MB Kongsberg multibeam vendor format
0590_20110514_022246_melville.all.mb58.gz 85.04MB Kongsberg multibeam vendor format
0591_20110514_025248_melville.all.mb58.gz 85.54MB Kongsberg multibeam vendor format
0592_20110514_032245_melville.all.mb58.gz 84.84MB Kongsberg multibeam vendor format
0593_20110514_035254_melville.all.mb58.gz 84.89MB Kongsberg multibeam vendor format
0594_20110514_042254_melville.all.mb58.gz 85.79MB Kongsberg multibeam vendor format
0595_20110514_045246_melville.all.mb58.gz 85.03MB Kongsberg multibeam vendor format
0596_20110514_052254_melville.all.mb58.gz 84.07MB Kongsberg multibeam vendor format
0597_20110514_055300_melville.all.mb58.gz 79.82MB Kongsberg multibeam vendor format
0598_20110514_062254_melville.all.mb58.gz 80.02MB Kongsberg multibeam vendor format
0599_20110514_065245_melville.all.mb58.gz 85.86MB Kongsberg multibeam vendor format
0600_20110514_072253_melville.all.mb58.gz 86.14MB Kongsberg multibeam vendor format
0601_20110514_075255_melville.all.mb58.gz 85.35MB Kongsberg multibeam vendor format
0602_20110514_082255_melville.all.mb58.gz 85.23MB Kongsberg multibeam vendor format
0603_20110514_085256_melville.all.mb58.gz 85.78MB Kongsberg multibeam vendor format
0604_20110514_092252_melville.all.mb58.gz 85.67MB Kongsberg multibeam vendor format
0605_20110514_095249_melville.all.mb58.gz 85.91MB Kongsberg multibeam vendor format
0606_20110514_102244_melville.all.mb58.gz 85.90MB Kongsberg multibeam vendor format
0607_20110514_105255_melville.all.mb58.gz 85.01MB Kongsberg multibeam vendor format
0608_20110514_112251_melville.all.mb58.gz 85.84MB Kongsberg multibeam vendor format
0609_20110514_115257_melville.all.mb58.gz 86.35MB Kongsberg multibeam vendor format
0610_20110514_122249_melville.all.mb58.gz 86.76MB Kongsberg multibeam vendor format
0611_20110514_125246_melville.all.mb58.gz 86.67MB Kongsberg multibeam vendor format
0612_20110514_132243_melville.all.mb58.gz 86.59MB Kongsberg multibeam vendor format
0613_20110514_135243_melville.all.mb58.gz 86.48MB Kongsberg multibeam vendor format
0614_20110514_142249_melville.all.mb58.gz 85.67MB Kongsberg multibeam vendor format
0615_20110514_145254_melville.all.mb58.gz 86.02MB Kongsberg multibeam vendor format
0616_20110514_152251_melville.all.mb58.gz 86.17MB Kongsberg multibeam vendor format
0617_20110514_155247_melville.all.mb58.gz 86.03MB Kongsberg multibeam vendor format
0618_20110514_162246_melville.all.mb58.gz 85.69MB Kongsberg multibeam vendor format
0619_20110514_165242_melville.all.mb58.gz 86.70MB Kongsberg multibeam vendor format
0620_20110514_172252_melville.all.mb58.gz 86.42MB Kongsberg multibeam vendor format
0621_20110514_175255_melville.all.mb58.gz 86.09MB Kongsberg multibeam vendor format
0622_20110514_182248_melville.all.mb58.gz 86.46MB Kongsberg multibeam vendor format
0623_20110514_185242_melville.all.mb58.gz 86.40MB Kongsberg multibeam vendor format
0624_20110514_192248_melville.all.mb58.gz 87.10MB Kongsberg multibeam vendor format
0625_20110514_195257_melville.all.mb58.gz 85.90MB Kongsberg multibeam vendor format
0626_20110514_202247_melville.all.mb58.gz 86.59MB Kongsberg multibeam vendor format
0627_20110514_205251_melville.all.mb58.gz 83.60MB Kongsberg multibeam vendor format
0628_20110514_212249_melville.all.mb58.gz 80.28MB Kongsberg multibeam vendor format
0629_20110514_215251_melville.all.mb58.gz 84.52MB Kongsberg multibeam vendor format
0630_20110514_222247_melville.all.mb58.gz 86.10MB Kongsberg multibeam vendor format
0631_20110514_225251_melville.all.mb58.gz 83.63MB Kongsberg multibeam vendor format
0632_20110514_232242_melville.all.mb58.gz 83.97MB Kongsberg multibeam vendor format
0633_20110514_235242_melville.all.mb58.gz 83.75MB Kongsberg multibeam vendor format
0634_20110515_002252_melville.all.mb58.gz 83.27MB Kongsberg multibeam vendor format
0635_20110515_005244_melville.all.mb58.gz 84.42MB Kongsberg multibeam vendor format
0636_20110515_012242_melville.all.mb58.gz 84.54MB Kongsberg multibeam vendor format
0637_20110515_015248_melville.all.mb58.gz 80.68MB Kongsberg multibeam vendor format
0638_20110515_022248_melville.all.mb58.gz 83.49MB Kongsberg multibeam vendor format
0639_20110515_025251_melville.all.mb58.gz 83.57MB Kongsberg multibeam vendor format
0640_20110515_032242_melville.all.mb58.gz 83.67MB Kongsberg multibeam vendor format
0641_20110515_035246_melville.all.mb58.gz 83.72MB Kongsberg multibeam vendor format
0642_20110515_042251_melville.all.mb58.gz 81.00MB Kongsberg multibeam vendor format
0643_20110515_045242_melville.all.mb58.gz 80.15MB Kongsberg multibeam vendor format
0644_20110515_052253_melville.all.mb58.gz 83.26MB Kongsberg multibeam vendor format
0645_20110515_055251_melville.all.mb58.gz 83.28MB Kongsberg multibeam vendor format
0646_20110515_062257_melville.all.mb58.gz 81.27MB Kongsberg multibeam vendor format
0647_20110515_065248_melville.all.mb58.gz 81.48MB Kongsberg multibeam vendor format
0648_20110515_072246_melville.all.mb58.gz 84.61MB Kongsberg multibeam vendor format
0649_20110515_075254_melville.all.mb58.gz 82.52MB Kongsberg multibeam vendor format
0650_20110515_082256_melville.all.mb58.gz 83.75MB Kongsberg multibeam vendor format
0651_20110515_085241_melville.all.mb58.gz 84.41MB Kongsberg multibeam vendor format
0652_20110515_092250_melville.all.mb58.gz 84.38MB Kongsberg multibeam vendor format
0653_20110515_095249_melville.all.mb58.gz 85.01MB Kongsberg multibeam vendor format
0654_20110515_102250_melville.all.mb58.gz 84.19MB Kongsberg multibeam vendor format
0655_20110515_105245_melville.all.mb58.gz 84.68MB Kongsberg multibeam vendor format
0656_20110515_112255_melville.all.mb58.gz 81.58MB Kongsberg multibeam vendor format
0657_20110515_115254_melville.all.mb58.gz 53.98MB Kongsberg multibeam vendor format
0658_20110515_150200_melville.all.mb58.gz 77.59MB Kongsberg multibeam vendor format
0659_20110515_153152_melville.all.mb58.gz 78.42MB Kongsberg multibeam vendor format
0660_20110515_160201_melville.all.mb58.gz 80.04MB Kongsberg multibeam vendor format
0661_20110515_163203_melville.all.mb58.gz 81.60MB Kongsberg multibeam vendor format
0662_20110515_170200_melville.all.mb58.gz 84.24MB Kongsberg multibeam vendor format
0663_20110515_173157_melville.all.mb58.gz 82.96MB Kongsberg multibeam vendor format
0664_20110515_180158_melville.all.mb58.gz 84.42MB Kongsberg multibeam vendor format
0665_20110515_183202_melville.all.mb58.gz 85.27MB Kongsberg multibeam vendor format
0666_20110515_190201_melville.all.mb58.gz 90.52MB Kongsberg multibeam vendor format
0667_20110515_193151_melville.all.mb58.gz 90.80MB Kongsberg multibeam vendor format
0668_20110515_200200_melville.all.mb58.gz 89.36MB Kongsberg multibeam vendor format
0669_20110515_203153_melville.all.mb58.gz 90.08MB Kongsberg multibeam vendor format
0670_20110515_210156_melville.all.mb58.gz 90.35MB Kongsberg multibeam vendor format
0671_20110515_213154_melville.all.mb58.gz 86.37MB Kongsberg multibeam vendor format
0672_20110515_220205_melville.all.mb58.gz 79.68MB Kongsberg multibeam vendor format
0673_20110515_223151_melville.all.mb58.gz 85.29MB Kongsberg multibeam vendor format
0674_20110515_230204_melville.all.mb58.gz 26.14MB Kongsberg multibeam vendor format
0675_20110516_011721_melville.all.mb58.gz 87.74MB Kongsberg multibeam vendor format
0676_20110516_014722_melville.all.mb58.gz 88.22MB Kongsberg multibeam vendor format
0677_20110516_021727_melville.all.mb58.gz 85.21MB Kongsberg multibeam vendor format
0678_20110516_024725_melville.all.mb58.gz 84.28MB Kongsberg multibeam vendor format
0679_20110516_031723_melville.all.mb58.gz 85.41MB Kongsberg multibeam vendor format
0680_20110516_034721_melville.all.mb58.gz 85.70MB Kongsberg multibeam vendor format
0681_20110516_041729_melville.all.mb58.gz 86.38MB Kongsberg multibeam vendor format
0682_20110516_044727_melville.all.mb58.gz 86.44MB Kongsberg multibeam vendor format
0683_20110516_051720_melville.all.mb58.gz 86.49MB Kongsberg multibeam vendor format
0684_20110516_054724_melville.all.mb58.gz 86.67MB Kongsberg multibeam vendor format
0685_20110516_061717_melville.all.mb58.gz 84.60MB Kongsberg multibeam vendor format
0686_20110516_064729_melville.all.mb58.gz 84.34MB Kongsberg multibeam vendor format
0687_20110516_071718_melville.all.mb58.gz 86.38MB Kongsberg multibeam vendor format
0688_20110516_074721_melville.all.mb58.gz 86.65MB Kongsberg multibeam vendor format
0689_20110516_081720_melville.all.mb58.gz 84.68MB Kongsberg multibeam vendor format
0690_20110516_084730_melville.all.mb58.gz 86.74MB Kongsberg multibeam vendor format
0691_20110516_091728_melville.all.mb58.gz 86.12MB Kongsberg multibeam vendor format
0692_20110516_094728_melville.all.mb58.gz 87.72MB Kongsberg multibeam vendor format
0693_20110516_101719_melville.all.mb58.gz 87.60MB Kongsberg multibeam vendor format
0694_20110516_104726_melville.all.mb58.gz 87.38MB Kongsberg multibeam vendor format
0695_20110516_111731_melville.all.mb58.gz 85.82MB Kongsberg multibeam vendor format
0696_20110516_114718_melville.all.mb58.gz 87.22MB Kongsberg multibeam vendor format
0697_20110516_121720_melville.all.mb58.gz 82.77MB Kongsberg multibeam vendor format
0698_20110516_124720_melville.all.mb58.gz 86.71MB Kongsberg multibeam vendor format
0699_20110516_131720_melville.all.mb58.gz 86.53MB Kongsberg multibeam vendor format
0700_20110516_134719_melville.all.mb58.gz 86.80MB Kongsberg multibeam vendor format
0701_20110516_141729_melville.all.mb58.gz 86.99MB Kongsberg multibeam vendor format
0702_20110516_144728_melville.all.mb58.gz 86.59MB Kongsberg multibeam vendor format
0703_20110516_151731_melville.all.mb58.gz 82.87MB Kongsberg multibeam vendor format
0704_20110516_154720_melville.all.mb58.gz 87.22MB Kongsberg multibeam vendor format
0705_20110516_161721_melville.all.mb58.gz 85.59MB Kongsberg multibeam vendor format
0706_20110516_164717_melville.all.mb58.gz 86.87MB Kongsberg multibeam vendor format
0707_20110516_171729_melville.all.mb58.gz 85.94MB Kongsberg multibeam vendor format
0708_20110516_174717_melville.all.mb58.gz 84.86MB Kongsberg multibeam vendor format
0709_20110516_181723_melville.all.mb58.gz 86.51MB Kongsberg multibeam vendor format
0710_20110516_184731_melville.all.mb58.gz 86.89MB Kongsberg multibeam vendor format
0711_20110516_191727_melville.all.mb58.gz 83.99MB Kongsberg multibeam vendor format
0712_20110516_194718_melville.all.mb58.gz 82.40MB Kongsberg multibeam vendor format
0713_20110516_201728_melville.all.mb58.gz 82.68MB Kongsberg multibeam vendor format
0714_20110516_204725_melville.all.mb58.gz 84.89MB Kongsberg multibeam vendor format
0715_20110516_211728_melville.all.mb58.gz 81.83MB Kongsberg multibeam vendor format
0716_20110516_214718_melville.all.mb58.gz 85.47MB Kongsberg multibeam vendor format
0717_20110516_221729_melville.all.mb58.gz 84.00MB Kongsberg multibeam vendor format
0718_20110516_224725_melville.all.mb58.gz 83.14MB Kongsberg multibeam vendor format
0719_20110516_231725_melville.all.mb58.gz 81.88MB Kongsberg multibeam vendor format
0720_20110516_234729_melville.all.mb58.gz 80.83MB Kongsberg multibeam vendor format
0721_20110517_001728_melville.all.mb58.gz 81.42MB Kongsberg multibeam vendor format
0722_20110517_004718_melville.all.mb58.gz 83.90MB Kongsberg multibeam vendor format
0723_20110517_011716_melville.all.mb58.gz 81.81MB Kongsberg multibeam vendor format
0724_20110517_014717_melville.all.mb58.gz 81.09MB Kongsberg multibeam vendor format
0725_20110517_021718_melville.all.mb58.gz 81.75MB Kongsberg multibeam vendor format
0726_20110517_024728_melville.all.mb58.gz 85.85MB Kongsberg multibeam vendor format
0727_20110517_031729_melville.all.mb58.gz 86.41MB Kongsberg multibeam vendor format
0728_20110517_034718_melville.all.mb58.gz 86.66MB Kongsberg multibeam vendor format
0729_20110517_041718_melville.all.mb58.gz 87.41MB Kongsberg multibeam vendor format
0730_20110517_044730_melville.all.mb58.gz 86.14MB Kongsberg multibeam vendor format
0731_20110517_051725_melville.all.mb58.gz 86.54MB Kongsberg multibeam vendor format
0732_20110517_054721_melville.all.mb58.gz 83.18MB Kongsberg multibeam vendor format
0733_20110517_061721_melville.all.mb58.gz 80.83MB Kongsberg multibeam vendor format
0734_20110517_064718_melville.all.mb58.gz 86.92MB Kongsberg multibeam vendor format
0735_20110517_071717_melville.all.mb58.gz 86.28MB Kongsberg multibeam vendor format
0736_20110517_074725_melville.all.mb58.gz 86.77MB Kongsberg multibeam vendor format
0737_20110517_081716_melville.all.mb58.gz 88.00MB Kongsberg multibeam vendor format
0738_20110517_084725_melville.all.mb58.gz 85.36MB Kongsberg multibeam vendor format
0739_20110517_091716_melville.all.mb58.gz 88.19MB Kongsberg multibeam vendor format
0740_20110517_094728_melville.all.mb58.gz 87.49MB Kongsberg multibeam vendor format
0741_20110517_101723_melville.all.mb58.gz 85.78MB Kongsberg multibeam vendor format
0742_20110517_104723_melville.all.mb58.gz 81.97MB Kongsberg multibeam vendor format
0743_20110517_111717_melville.all.mb58.gz 84.51MB Kongsberg multibeam vendor format
0744_20110517_114728_melville.all.mb58.gz 87.41MB Kongsberg multibeam vendor format
0745_20110517_121731_melville.all.mb58.gz 86.18MB Kongsberg multibeam vendor format
0746_20110517_124724_melville.all.mb58.gz 84.18MB Kongsberg multibeam vendor format
0747_20110517_131717_melville.all.mb58.gz 87.28MB Kongsberg multibeam vendor format
0748_20110517_134719_melville.all.mb58.gz 87.18MB Kongsberg multibeam vendor format
0749_20110517_141716_melville.all.mb58.gz 85.58MB Kongsberg multibeam vendor format
0750_20110517_144720_melville.all.mb58.gz 84.27MB Kongsberg multibeam vendor format
0751_20110517_151729_melville.all.mb58.gz 16.90MB Kongsberg multibeam vendor format
0752_20110517_160541_melville.all.mb58.gz 37.71MB Kongsberg multibeam vendor format
0754_20110517_162208_melville.all.mb58.gz 84.98MB Kongsberg multibeam vendor format
0755_20110517_165209_melville.all.mb58.gz 94.77MB Kongsberg multibeam vendor format
0756_20110517_172211_melville.all.mb58.gz 74.63MB Kongsberg multibeam vendor format
0757_20110517_192623_melville.all.mb58.gz 101.72MB Kongsberg multibeam vendor format
0758_20110517_195614_melville.all.mb58.gz 96.60MB Kongsberg multibeam vendor format
0759_20110517_202617_melville.all.mb58.gz 99.01MB Kongsberg multibeam vendor format
0760_20110517_205612_melville.all.mb58.gz 95.12MB Kongsberg multibeam vendor format
0761_20110517_212615_melville.all.mb58.gz 95.03MB Kongsberg multibeam vendor format
0762_20110517_215612_melville.all.mb58.gz 83.63MB Kongsberg multibeam vendor format
0763_20110517_222620_melville.all.mb58.gz 82.25MB Kongsberg multibeam vendor format
0764_20110517_225629_melville.all.mb58.gz 81.87MB Kongsberg multibeam vendor format
0765_20110517_232626_melville.all.mb58.gz 84.47MB Kongsberg multibeam vendor format
0766_20110517_235617_melville.all.mb58.gz 84.68MB Kongsberg multibeam vendor format
0767_20110518_002620_melville.all.mb58.gz 84.89MB Kongsberg multibeam vendor format
0768_20110518_005624_melville.all.mb58.gz 83.33MB Kongsberg multibeam vendor format
0769_20110518_012614_melville.all.mb58.gz 87.75MB Kongsberg multibeam vendor format
0770_20110518_015615_melville.all.mb58.gz 90.19MB Kongsberg multibeam vendor format
0771_20110518_022618_melville.all.mb58.gz 86.97MB Kongsberg multibeam vendor format
0772_20110518_025613_melville.all.mb58.gz 85.00MB Kongsberg multibeam vendor format
0773_20110518_032621_melville.all.mb58.gz 87.56MB Kongsberg multibeam vendor format
0774_20110518_035623_melville.all.mb58.gz 81.58MB Kongsberg multibeam vendor format
0775_20110518_042618_melville.all.mb58.gz 81.42MB Kongsberg multibeam vendor format
0776_20110518_045621_melville.all.mb58.gz 81.36MB Kongsberg multibeam vendor format
0777_20110518_052616_melville.all.mb58.gz 85.89MB Kongsberg multibeam vendor format
0778_20110518_055619_melville.all.mb58.gz 82.41MB Kongsberg multibeam vendor format
0779_20110518_062631_melville.all.mb58.gz 82.21MB Kongsberg multibeam vendor format
0780_20110518_065621_melville.all.mb58.gz 84.09MB Kongsberg multibeam vendor format
0781_20110518_072621_melville.all.mb58.gz 87.09MB Kongsberg multibeam vendor format
0782_20110518_075625_melville.all.mb58.gz 87.00MB Kongsberg multibeam vendor format
0783_20110518_082623_melville.all.mb58.gz 86.91MB Kongsberg multibeam vendor format
0784_20110518_085624_melville.all.mb58.gz 85.30MB Kongsberg multibeam vendor format
0785_20110518_092620_melville.all.mb58.gz 85.63MB Kongsberg multibeam vendor format
0786_20110518_095619_melville.all.mb58.gz 87.10MB Kongsberg multibeam vendor format
0787_20110518_102618_melville.all.mb58.gz 86.40MB Kongsberg multibeam vendor format
0788_20110518_105623_melville.all.mb58.gz 84.90MB Kongsberg multibeam vendor format
0789_20110518_112612_melville.all.mb58.gz 85.10MB Kongsberg multibeam vendor format
0790_20110518_115612_melville.all.mb58.gz 84.98MB Kongsberg multibeam vendor format
0791_20110518_122615_melville.all.mb58.gz 82.45MB Kongsberg multibeam vendor format
0792_20110518_125620_melville.all.mb58.gz 83.77MB Kongsberg multibeam vendor format
0793_20110518_132614_melville.all.mb58.gz 82.69MB Kongsberg multibeam vendor format
0794_20110518_135615_melville.all.mb58.gz 82.25MB Kongsberg multibeam vendor format
0795_20110518_142614_melville.all.mb58.gz 82.93MB Kongsberg multibeam vendor format
0796_20110518_145617_melville.all.mb58.gz 80.91MB Kongsberg multibeam vendor format
0797_20110518_152613_melville.all.mb58.gz 82.93MB Kongsberg multibeam vendor format
0798_20110518_155627_melville.all.mb58.gz 82.30MB Kongsberg multibeam vendor format
0799_20110518_162617_melville.all.mb58.gz 83.21MB Kongsberg multibeam vendor format
0800_20110518_165614_melville.all.mb58.gz 83.06MB Kongsberg multibeam vendor format
0801_20110518_172616_melville.all.mb58.gz 84.52MB Kongsberg multibeam vendor format
0802_20110518_175623_melville.all.mb58.gz 82.75MB Kongsberg multibeam vendor format
0803_20110518_182627_melville.all.mb58.gz 81.70MB Kongsberg multibeam vendor format
0804_20110518_185612_melville.all.mb58.gz 82.92MB Kongsberg multibeam vendor format
0805_20110518_192613_melville.all.mb58.gz 84.07MB Kongsberg multibeam vendor format
0806_20110518_195628_melville.all.mb58.gz 65.24MB Kongsberg multibeam vendor format
0807_20110518_202612_melville.all.mb58.gz 69.21MB Kongsberg multibeam vendor format
0808_20110518_205624_melville.all.mb58.gz 66.68MB Kongsberg multibeam vendor format
0809_20110518_212625_melville.all.mb58.gz 66.56MB Kongsberg multibeam vendor format
0810_20110518_215621_melville.all.mb58.gz 66.76MB Kongsberg multibeam vendor format
0811_20110518_222624_melville.all.mb58.gz 66.11MB Kongsberg multibeam vendor format
0812_20110518_225625_melville.all.mb58.gz 66.75MB Kongsberg multibeam vendor format
0813_20110518_232622_melville.all.mb58.gz 66.33MB Kongsberg multibeam vendor format
0814_20110518_235617_melville.all.mb58.gz 66.59MB Kongsberg multibeam vendor format
0815_20110519_002626_melville.all.mb58.gz 62.84MB Kongsberg multibeam vendor format
0816_20110519_005624_melville.all.mb58.gz 66.34MB Kongsberg multibeam vendor format
0817_20110519_012625_melville.all.mb58.gz 83.89MB Kongsberg multibeam vendor format
0818_20110519_015614_melville.all.mb58.gz 63.92MB Kongsberg multibeam vendor format
0819_20110519_022626_melville.all.mb58.gz 64.54MB Kongsberg multibeam vendor format
0820_20110519_025620_melville.all.mb58.gz 66.24MB Kongsberg multibeam vendor format
0821_20110519_032617_melville.all.mb58.gz 64.72MB Kongsberg multibeam vendor format
0822_20110519_035612_melville.all.mb58.gz 63.11MB Kongsberg multibeam vendor format
0823_20110519_042621_melville.all.mb58.gz 65.09MB Kongsberg multibeam vendor format
0824_20110519_045624_melville.all.mb58.gz 65.72MB Kongsberg multibeam vendor format
0825_20110519_052621_melville.all.mb58.gz 65.51MB Kongsberg multibeam vendor format
0826_20110519_055615_melville.all.mb58.gz 64.32MB Kongsberg multibeam vendor format
0827_20110519_062615_melville.all.mb58.gz 64.41MB Kongsberg multibeam vendor format
0828_20110519_065627_melville.all.mb58.gz 65.17MB Kongsberg multibeam vendor format
0829_20110519_072619_melville.all.mb58.gz 63.52MB Kongsberg multibeam vendor format
0830_20110519_075612_melville.all.mb58.gz 62.81MB Kongsberg multibeam vendor format
0831_20110519_082624_melville.all.mb58.gz 65.03MB Kongsberg multibeam vendor format
0832_20110519_085626_melville.all.mb58.gz 67.10MB Kongsberg multibeam vendor format
0833_20110519_092616_melville.all.mb58.gz 64.27MB Kongsberg multibeam vendor format
0834_20110519_095612_melville.all.mb58.gz 65.62MB Kongsberg multibeam vendor format
0835_20110519_102626_melville.all.mb58.gz 64.02MB Kongsberg multibeam vendor format
0836_20110519_105626_melville.all.mb58.gz 63.29MB Kongsberg multibeam vendor format
0837_20110519_112614_melville.all.mb58.gz 63.11MB Kongsberg multibeam vendor format
0838_20110519_115612_melville.all.mb58.gz 63.95MB Kongsberg multibeam vendor format
0839_20110519_122621_melville.all.mb58.gz 65.12MB Kongsberg multibeam vendor format
0840_20110519_125622_melville.all.mb58.gz 65.76MB Kongsberg multibeam vendor format
0841_20110519_132626_melville.all.mb58.gz 67.07MB Kongsberg multibeam vendor format
0842_20110519_135624_melville.all.mb58.gz 65.80MB Kongsberg multibeam vendor format
0843_20110519_142624_melville.all.mb58.gz 64.77MB Kongsberg multibeam vendor format
0844_20110519_145626_melville.all.mb58.gz 62.86MB Kongsberg multibeam vendor format
0845_20110519_152625_melville.all.mb58.gz 35.66MB Kongsberg multibeam vendor format
0846_20110519_165633_melville.all.mb58.gz 60.80MB Kongsberg multibeam vendor format
0847_20110519_172632_melville.all.mb58.gz 61.44MB Kongsberg multibeam vendor format
0848_20110519_175631_melville.all.mb58.gz 63.02MB Kongsberg multibeam vendor format
0849_20110519_182630_melville.all.mb58.gz 62.25MB Kongsberg multibeam vendor format
0850_20110519_185633_melville.all.mb58.gz 60.88MB Kongsberg multibeam vendor format
0851_20110519_192622_melville.all.mb58.gz 61.73MB Kongsberg multibeam vendor format
0852_20110519_195629_melville.all.mb58.gz 60.90MB Kongsberg multibeam vendor format
0853_20110519_202640_melville.all.mb58.gz 59.03MB Kongsberg multibeam vendor format
0854_20110519_205622_melville.all.mb58.gz 60.92MB Kongsberg multibeam vendor format
0855_20110519_212633_melville.all.mb58.gz 61.81MB Kongsberg multibeam vendor format
0856_20110519_215638_melville.all.mb58.gz 61.48MB Kongsberg multibeam vendor format
0857_20110519_222633_melville.all.mb58.gz 61.37MB Kongsberg multibeam vendor format
0858_20110519_225637_melville.all.mb58.gz 60.89MB Kongsberg multibeam vendor format
0859_20110519_232631_melville.all.mb58.gz 62.44MB Kongsberg multibeam vendor format
0860_20110519_235632_melville.all.mb58.gz 61.35MB Kongsberg multibeam vendor format
0861_20110520_002626_melville.all.mb58.gz 61.10MB Kongsberg multibeam vendor format
0862_20110520_005627_melville.all.mb58.gz 60.54MB Kongsberg multibeam vendor format
0863_20110520_012626_melville.all.mb58.gz 60.88MB Kongsberg multibeam vendor format
0864_20110520_015632_melville.all.mb58.gz 60.00MB Kongsberg multibeam vendor format
0865_20110520_022624_melville.all.mb58.gz 61.82MB Kongsberg multibeam vendor format
0866_20110520_025629_melville.all.mb58.gz 67.08MB Kongsberg multibeam vendor format
0867_20110520_032621_melville.all.mb58.gz 65.78MB Kongsberg multibeam vendor format
0868_20110520_035621_melville.all.mb58.gz 63.88MB Kongsberg multibeam vendor format
0869_20110520_042620_melville.all.mb58.gz 64.29MB Kongsberg multibeam vendor format
0870_20110520_045622_melville.all.mb58.gz 65.23MB Kongsberg multibeam vendor format
0871_20110520_052626_melville.all.mb58.gz 62.71MB Kongsberg multibeam vendor format
0872_20110520_055621_melville.all.mb58.gz 64.03MB Kongsberg multibeam vendor format
0873_20110520_062626_melville.all.mb58.gz 64.10MB Kongsberg multibeam vendor format
0874_20110520_065631_melville.all.mb58.gz 65.37MB Kongsberg multibeam vendor format
0875_20110520_072629_melville.all.mb58.gz 63.00MB Kongsberg multibeam vendor format
0876_20110520_075622_melville.all.mb58.gz 62.52MB Kongsberg multibeam vendor format
0877_20110520_082633_melville.all.mb58.gz 63.72MB Kongsberg multibeam vendor format
0878_20110520_085632_melville.all.mb58.gz 63.90MB Kongsberg multibeam vendor format
0879_20110520_092633_melville.all.mb58.gz 61.30MB Kongsberg multibeam vendor format
0880_20110520_095622_melville.all.mb58.gz 64.66MB Kongsberg multibeam vendor format
0881_20110520_102632_melville.all.mb58.gz 63.52MB Kongsberg multibeam vendor format
0882_20110520_105626_melville.all.mb58.gz 64.11MB Kongsberg multibeam vendor format
0883_20110520_112632_melville.all.mb58.gz 64.19MB Kongsberg multibeam vendor format
0884_20110520_115626_melville.all.mb58.gz 61.12MB Kongsberg multibeam vendor format
0885_20110520_122625_melville.all.mb58.gz 63.74MB Kongsberg multibeam vendor format
0886_20110520_125624_melville.all.mb58.gz 63.21MB Kongsberg multibeam vendor format
0887_20110520_132625_melville.all.mb58.gz 63.73MB Kongsberg multibeam vendor format
0888_20110520_135627_melville.all.mb58.gz 64.52MB Kongsberg multibeam vendor format
0889_20110520_142634_melville.all.mb58.gz 63.60MB Kongsberg multibeam vendor format
0890_20110520_145623_melville.all.mb58.gz 65.72MB Kongsberg multibeam vendor format
0891_20110520_152628_melville.all.mb58.gz 64.36MB Kongsberg multibeam vendor format
0892_20110520_155620_melville.all.mb58.gz 65.44MB Kongsberg multibeam vendor format
0893_20110520_162622_melville.all.mb58.gz 63.30MB Kongsberg multibeam vendor format
0894_20110520_165620_melville.all.mb58.gz 65.83MB Kongsberg multibeam vendor format
0895_20110520_172625_melville.all.mb58.gz 66.01MB Kongsberg multibeam vendor format
0896_20110520_175628_melville.all.mb58.gz 64.34MB Kongsberg multibeam vendor format
0897_20110520_182628_melville.all.mb58.gz 63.94MB Kongsberg multibeam vendor format
0898_20110520_185622_melville.all.mb58.gz 65.46MB Kongsberg multibeam vendor format
0899_20110520_192628_melville.all.mb58.gz 62.86MB Kongsberg multibeam vendor format
0900_20110520_195628_melville.all.mb58.gz 64.47MB Kongsberg multibeam vendor format
0901_20110520_202627_melville.all.mb58.gz 63.29MB Kongsberg multibeam vendor format
0902_20110520_205625_melville.all.mb58.gz 62.29MB Kongsberg multibeam vendor format
0903_20110520_212626_melville.all.mb58.gz 60.16MB Kongsberg multibeam vendor format
0904_20110520_215627_melville.all.mb58.gz 62.69MB Kongsberg multibeam vendor format
0905_20110520_222626_melville.all.mb58.gz 62.81MB Kongsberg multibeam vendor format
0906_20110520_225627_melville.all.mb58.gz 65.04MB Kongsberg multibeam vendor format
0907_20110520_232628_melville.all.mb58.gz 61.76MB Kongsberg multibeam vendor format
0908_20110520_235628_melville.all.mb58.gz 65.24MB Kongsberg multibeam vendor format
0909_20110521_002634_melville.all.mb58.gz 61.88MB Kongsberg multibeam vendor format
0910_20110521_005622_melville.all.mb58.gz 61.80MB Kongsberg multibeam vendor format
0911_20110521_012629_melville.all.mb58.gz 61.52MB Kongsberg multibeam vendor format
0912_20110521_015626_melville.all.mb58.gz 60.21MB Kongsberg multibeam vendor format
0913_20110521_022632_melville.all.mb58.gz 61.36MB Kongsberg multibeam vendor format
0914_20110521_025631_melville.all.mb58.gz 61.79MB Kongsberg multibeam vendor format
0915_20110521_032631_melville.all.mb58.gz 61.20MB Kongsberg multibeam vendor format
0916_20110521_035628_melville.all.mb58.gz 59.63MB Kongsberg multibeam vendor format
0917_20110521_042630_melville.all.mb58.gz 61.45MB Kongsberg multibeam vendor format
0918_20110521_045626_melville.all.mb58.gz 62.73MB Kongsberg multibeam vendor format
0919_20110521_052630_melville.all.mb58.gz 61.94MB Kongsberg multibeam vendor format
0920_20110521_055626_melville.all.mb58.gz 62.59MB Kongsberg multibeam vendor format
0921_20110521_062624_melville.all.mb58.gz 61.04MB Kongsberg multibeam vendor format
0922_20110521_065626_melville.all.mb58.gz 61.25MB Kongsberg multibeam vendor format
0923_20110521_072621_melville.all.mb58.gz 63.04MB Kongsberg multibeam vendor format
0924_20110521_075627_melville.all.mb58.gz 61.49MB Kongsberg multibeam vendor format
0925_20110521_082625_melville.all.mb58.gz 60.12MB Kongsberg multibeam vendor format
0926_20110521_085629_melville.all.mb58.gz 61.38MB Kongsberg multibeam vendor format
0927_20110521_092623_melville.all.mb58.gz 60.15MB Kongsberg multibeam vendor format
0928_20110521_095619_melville.all.mb58.gz 60.99MB Kongsberg multibeam vendor format
0929_20110521_102622_melville.all.mb58.gz 61.56MB Kongsberg multibeam vendor format
0930_20110521_105633_melville.all.mb58.gz 63.28MB Kongsberg multibeam vendor format
0931_20110521_112628_melville.all.mb58.gz 62.54MB Kongsberg multibeam vendor format
0932_20110521_115629_melville.all.mb58.gz 61.51MB Kongsberg multibeam vendor format
0933_20110521_122626_melville.all.mb58.gz 62.09MB Kongsberg multibeam vendor format
0934_20110521_125622_melville.all.mb58.gz 63.98MB Kongsberg multibeam vendor format
0935_20110521_132630_melville.all.mb58.gz 60.68MB Kongsberg multibeam vendor format
0936_20110521_135629_melville.all.mb58.gz 59.97MB Kongsberg multibeam vendor format
0937_20110521_142634_melville.all.mb58.gz 60.34MB Kongsberg multibeam vendor format
0938_20110521_145631_melville.all.mb58.gz 62.09MB Kongsberg multibeam vendor format
0939_20110521_152628_melville.all.mb58.gz 60.63MB Kongsberg multibeam vendor format
0940_20110521_155626_melville.all.mb58.gz 62.22MB Kongsberg multibeam vendor format
0941_20110521_162630_melville.all.mb58.gz 5.18MB Kongsberg multibeam vendor format
0943_20110521_163911_melville.all.mb58.gz 61.45MB Kongsberg multibeam vendor format
0944_20110521_170915_melville.all.mb58.gz 62.43MB Kongsberg multibeam vendor format
0945_20110521_173906_melville.all.mb58.gz 62.97MB Kongsberg multibeam vendor format
0946_20110521_180903_melville.all.mb58.gz 63.72MB Kongsberg multibeam vendor format
0947_20110521_183907_melville.all.mb58.gz 64.36MB Kongsberg multibeam vendor format
0948_20110521_190905_melville.all.mb58.gz 61.68MB Kongsberg multibeam vendor format
0949_20110521_193908_melville.all.mb58.gz 62.16MB Kongsberg multibeam vendor format
0950_20110521_200915_melville.all.mb58.gz 62.48MB Kongsberg multibeam vendor format
0951_20110521_203903_melville.all.mb58.gz 62.70MB Kongsberg multibeam vendor format
0952_20110521_210905_melville.all.mb58.gz 65.82MB Kongsberg multibeam vendor format
0953_20110521_213917_melville.all.mb58.gz 67.14MB Kongsberg multibeam vendor format
0954_20110521_220903_melville.all.mb58.gz 62.59MB Kongsberg multibeam vendor format
0955_20110521_223917_melville.all.mb58.gz 61.92MB Kongsberg multibeam vendor format
0956_20110521_230908_melville.all.mb58.gz 61.52MB Kongsberg multibeam vendor format
0957_20110521_233905_melville.all.mb58.gz 69.42MB Kongsberg multibeam vendor format
0958_20110522_000908_melville.all.mb58.gz 67.25MB Kongsberg multibeam vendor format
0959_20110522_003914_melville.all.mb58.gz 65.16MB Kongsberg multibeam vendor format
0960_20110522_010903_melville.all.mb58.gz 67.46MB Kongsberg multibeam vendor format
0961_20110522_013911_melville.all.mb58.gz 62.85MB Kongsberg multibeam vendor format
0962_20110522_020907_melville.all.mb58.gz 62.16MB Kongsberg multibeam vendor format
0963_20110522_023911_melville.all.mb58.gz 66.05MB Kongsberg multibeam vendor format
0964_20110522_030904_melville.all.mb58.gz 60.85MB Kongsberg multibeam vendor format
0965_20110522_033911_melville.all.mb58.gz 63.59MB Kongsberg multibeam vendor format
0966_20110522_040919_melville.all.mb58.gz 61.62MB Kongsberg multibeam vendor format
0967_20110522_043906_melville.all.mb58.gz 58.98MB Kongsberg multibeam vendor format
0968_20110522_050906_melville.all.mb58.gz 60.81MB Kongsberg multibeam vendor format
0969_20110522_053913_melville.all.mb58.gz 59.16MB Kongsberg multibeam vendor format
0970_20110522_060913_melville.all.mb58.gz 57.41MB Kongsberg multibeam vendor format
0971_20110522_063910_melville.all.mb58.gz 60.58MB Kongsberg multibeam vendor format
0972_20110522_070916_melville.all.mb58.gz 59.48MB Kongsberg multibeam vendor format
0973_20110522_073905_melville.all.mb58.gz 59.83MB Kongsberg multibeam vendor format
0974_20110522_080919_melville.all.mb58.gz 58.98MB Kongsberg multibeam vendor format
0975_20110522_083914_melville.all.mb58.gz 61.85MB Kongsberg multibeam vendor format
0976_20110522_090919_melville.all.mb58.gz 60.76MB Kongsberg multibeam vendor format
0977_20110522_093912_melville.all.mb58.gz 59.26MB Kongsberg multibeam vendor format
0978_20110522_100919_melville.all.mb58.gz 59.85MB Kongsberg multibeam vendor format
0979_20110522_103912_melville.all.mb58.gz 56.59MB Kongsberg multibeam vendor format
0980_20110522_110917_melville.all.mb58.gz 58.76MB Kongsberg multibeam vendor format
0981_20110522_113917_melville.all.mb58.gz 60.68MB Kongsberg multibeam vendor format
0982_20110522_120915_melville.all.mb58.gz 60.73MB Kongsberg multibeam vendor format
0983_20110522_123905_melville.all.mb58.gz 61.77MB Kongsberg multibeam vendor format
0984_20110522_130908_melville.all.mb58.gz 39.94MB Kongsberg multibeam vendor format
0985_20110522_160450_melville.all.mb58.gz 24.79MB Kongsberg multibeam vendor format
0987_20110522_194109_melville.all.mb58.gz 66.19MB Kongsberg multibeam vendor format
0988_20110522_201117_melville.all.mb58.gz 65.34MB Kongsberg multibeam vendor format
0989_20110522_204111_melville.all.mb58.gz 64.23MB Kongsberg multibeam vendor format
0990_20110522_211120_melville.all.mb58.gz 63.37MB Kongsberg multibeam vendor format
0991_20110522_214105_melville.all.mb58.gz 63.92MB Kongsberg multibeam vendor format
0992_20110522_221119_melville.all.mb58.gz 8.45MB Kongsberg multibeam vendor format
0993_20110522_224108_melville.all.mb58.gz 63.14MB Kongsberg multibeam vendor format
0994_20110522_231107_melville.all.mb58.gz 62.89MB Kongsberg multibeam vendor format
0995_20110522_234057_melville.all.mb58.gz 64.65MB Kongsberg multibeam vendor format
0996_20110523_001101_melville.all.mb58.gz 68.67MB Kongsberg multibeam vendor format
0997_20110523_004106_melville.all.mb58.gz 65.96MB Kongsberg multibeam vendor format
0998_20110523_011103_melville.all.mb58.gz 67.76MB Kongsberg multibeam vendor format
0999_20110523_014110_melville.all.mb58.gz 63.46MB Kongsberg multibeam vendor format
1000_20110523_021107_melville.all.mb58.gz 64.29MB Kongsberg multibeam vendor format
1001_20110523_024109_melville.all.mb58.gz 62.84MB Kongsberg multibeam vendor format
1002_20110523_031108_melville.all.mb58.gz 64.04MB Kongsberg multibeam vendor format
1003_20110523_034108_melville.all.mb58.gz 62.01MB Kongsberg multibeam vendor format
1004_20110523_041100_melville.all.mb58.gz 67.47MB Kongsberg multibeam vendor format
1005_20110523_044057_melville.all.mb58.gz 66.55MB Kongsberg multibeam vendor format
1006_20110523_051107_melville.all.mb58.gz 70.41MB Kongsberg multibeam vendor format
1007_20110523_054109_melville.all.mb58.gz 69.87MB Kongsberg multibeam vendor format
1008_20110523_061103_melville.all.mb58.gz 64.60MB Kongsberg multibeam vendor format
1009_20110523_064109_melville.all.mb58.gz 68.05MB Kongsberg multibeam vendor format
1010_20110523_071102_melville.all.mb58.gz 62.76MB Kongsberg multibeam vendor format
1011_20110523_074102_melville.all.mb58.gz 62.57MB Kongsberg multibeam vendor format
1012_20110523_081100_melville.all.mb58.gz 61.45MB Kongsberg multibeam vendor format
1013_20110523_084105_melville.all.mb58.gz 64.36MB Kongsberg multibeam vendor format
1014_20110523_091110_melville.all.mb58.gz 65.23MB Kongsberg multibeam vendor format
1015_20110523_094105_melville.all.mb58.gz 64.45MB Kongsberg multibeam vendor format
1016_20110523_101106_melville.all.mb58.gz 65.53MB Kongsberg multibeam vendor format
1017_20110523_104056_melville.all.mb58.gz 66.08MB Kongsberg multibeam vendor format
1018_20110523_111109_melville.all.mb58.gz 65.03MB Kongsberg multibeam vendor format
1019_20110523_114108_melville.all.mb58.gz 63.14MB Kongsberg multibeam vendor format
1020_20110523_121055_melville.all.mb58.gz 65.28MB Kongsberg multibeam vendor format
1021_20110523_124058_melville.all.mb58.gz 66.44MB Kongsberg multibeam vendor format
1022_20110523_131108_melville.all.mb58.gz 64.88MB Kongsberg multibeam vendor format
1023_20110523_134103_melville.all.mb58.gz 64.89MB Kongsberg multibeam vendor format
1024_20110523_141102_melville.all.mb58.gz 65.31MB Kongsberg multibeam vendor format
1025_20110523_144107_melville.all.mb58.gz 64.55MB Kongsberg multibeam vendor format
1026_20110523_151102_melville.all.mb58.gz 63.86MB Kongsberg multibeam vendor format
1027_20110523_154108_melville.all.mb58.gz 64.73MB Kongsberg multibeam vendor format
1028_20110523_161057_melville.all.mb58.gz 65.44MB Kongsberg multibeam vendor format
1029_20110523_164109_melville.all.mb58.gz 64.21MB Kongsberg multibeam vendor format
1030_20110523_171111_melville.all.mb58.gz 60.36MB Kongsberg multibeam vendor format
1031_20110523_174107_melville.all.mb58.gz 63.24MB Kongsberg multibeam vendor format
1032_20110523_181105_melville.all.mb58.gz 63.95MB Kongsberg multibeam vendor format
1033_20110523_184105_melville.all.mb58.gz 62.52MB Kongsberg multibeam vendor format
1034_20110523_191055_melville.all.mb58.gz 63.43MB Kongsberg multibeam vendor format
1035_20110523_194101_melville.all.mb58.gz 63.97MB Kongsberg multibeam vendor format
1036_20110523_201101_melville.all.mb58.gz 57.14MB Kongsberg multibeam vendor format
1037_20110527_122845_melville.all.mb58.gz 98.57MB Kongsberg multibeam vendor format
1038_20110527_125857_melville.all.mb58.gz 98.63MB Kongsberg multibeam vendor format
1039_20110527_132850_melville.all.mb58.gz 98.23MB Kongsberg multibeam vendor format
1040_20110527_135847_melville.all.mb58.gz 101.04MB Kongsberg multibeam vendor format
1041_20110527_142845_melville.all.mb58.gz 98.32MB Kongsberg multibeam vendor format
1042_20110527_145847_melville.all.mb58.gz 101.21MB Kongsberg multibeam vendor format
1043_20110527_152851_melville.all.mb58.gz 91.87MB Kongsberg multibeam vendor format
1044_20110527_155848_melville.all.mb58.gz 98.44MB Kongsberg multibeam vendor format
1045_20110527_162845_melville.all.mb58.gz 99.05MB Kongsberg multibeam vendor format
1046_20110527_165849_melville.all.mb58.gz 99.28MB Kongsberg multibeam vendor format
1047_20110527_172850_melville.all.mb58.gz 94.86MB Kongsberg multibeam vendor format
1048_20110527_175844_melville.all.mb58.gz 97.17MB Kongsberg multibeam vendor format
1049_20110527_182848_melville.all.mb58.gz 88.71MB Kongsberg multibeam vendor format
1050_20110527_185847_melville.all.mb58.gz 91.37MB Kongsberg multibeam vendor format
1051_20110527_192844_melville.all.mb58.gz 98.35MB Kongsberg multibeam vendor format
1052_20110527_195850_melville.all.mb58.gz 101.71MB Kongsberg multibeam vendor format
1053_20110527_202856_melville.all.mb58.gz 100.91MB Kongsberg multibeam vendor format
1054_20110527_205844_melville.all.mb58.gz 103.79MB Kongsberg multibeam vendor format
1055_20110527_212854_melville.all.mb58.gz 103.24MB Kongsberg multibeam vendor format
1056_20110527_215844_melville.all.mb58.gz 104.09MB Kongsberg multibeam vendor format
1057_20110527_222845_melville.all.mb58.gz 105.18MB Kongsberg multibeam vendor format
1058_20110527_225849_melville.all.mb58.gz 104.67MB Kongsberg multibeam vendor format
1059_20110527_232852_melville.all.mb58.gz 98.26MB Kongsberg multibeam vendor format
1060_20110527_235845_melville.all.mb58.gz 99.57MB Kongsberg multibeam vendor format
1061_20110528_002858_melville.all.mb58.gz 90.20MB Kongsberg multibeam vendor format
1062_20110528_005849_melville.all.mb58.gz 96.72MB Kongsberg multibeam vendor format
1063_20110528_012854_melville.all.mb58.gz 96.30MB Kongsberg multibeam vendor format
1064_20110528_015850_melville.all.mb58.gz 98.64MB Kongsberg multibeam vendor format
1065_20110528_022855_melville.all.mb58.gz 86.19MB Kongsberg multibeam vendor format
1066_20110528_025852_melville.all.mb58.gz 84.73MB Kongsberg multibeam vendor format
1067_20110528_032844_melville.all.mb58.gz 117.70MB Kongsberg multibeam vendor format
1068_20110528_035851_melville.all.mb58.gz 99.27MB Kongsberg multibeam vendor format
1069_20110528_042847_melville.all.mb58.gz 114.81MB Kongsberg multibeam vendor format
1070_20110528_045846_melville.all.mb58.gz 95.66MB Kongsberg multibeam vendor format
1071_20110528_052847_melville.all.mb58.gz 96.28MB Kongsberg multibeam vendor format
1072_20110528_055844_melville.all.mb58.gz 76.70MB Kongsberg multibeam vendor format
1073_20110528_062848_melville.all.mb58.gz 68.80MB Kongsberg multibeam vendor format
1074_20110528_065843_melville.all.mb58.gz 68.05MB Kongsberg multibeam vendor format
1075_20110528_072848_melville.all.mb58.gz 67.95MB Kongsberg multibeam vendor format
1076_20110528_075844_melville.all.mb58.gz 66.77MB Kongsberg multibeam vendor format
1077_20110528_082845_melville.all.mb58.gz 80.91MB Kongsberg multibeam vendor format
1078_20110528_085843_melville.all.mb58.gz 89.69MB Kongsberg multibeam vendor format
1079_20110528_092847_melville.all.mb58.gz 88.82MB Kongsberg multibeam vendor format
1080_20110528_095845_melville.all.mb58.gz 83.18MB Kongsberg multibeam vendor format
1081_20110528_102846_melville.all.mb58.gz 84.67MB Kongsberg multibeam vendor format
1082_20110528_105850_melville.all.mb58.gz 67.12MB Kongsberg multibeam vendor format
1083_20110528_112847_melville.all.mb58.gz 69.14MB Kongsberg multibeam vendor format
1084_20110528_115844_melville.all.mb58.gz 36.53MB Kongsberg multibeam vendor format
1085_20110528_121140_melville.all.mb58.gz 164.02MB Kongsberg multibeam vendor format
1086_20110528_124132_melville.all.mb58.gz 271.84MB Kongsberg multibeam vendor format
1087_20110528_131132_melville.all.mb58.gz 276.23MB Kongsberg multibeam vendor format
1088_20110528_134131_melville.all.mb58.gz 188.19MB Kongsberg multibeam vendor format
1089_20110528_141131_melville.all.mb58.gz 146.24MB Kongsberg multibeam vendor format
1090_20110528_144130_melville.all.mb58.gz 163.35MB Kongsberg multibeam vendor format
1091_20110528_151130_melville.all.mb58.gz 60.35MB Kongsberg multibeam vendor format

Metadata Files: 2

Files File Size Description
MV1105_Multibeam.xml NGDC created ISO metadata
xbt_bag_info.tar.gz 1.9KB Additional cruise information

Ancillary Files: 1

Files File Size Description
xbt.tar.gz 287.3KB Expendable Bathythermograph (XBT) data